M I D A S
Marine Information and Data Acquisition System
Tripno 1805 of the Zeeleeuw from 2009-11-06 07:33:50 to 2009-11-06 14:23:38
Back to CruiseResearch ActivitiesStationsMapUnderway DataData graphs

EquipmentUnitsComment
TimeDGPSUTC
LatitudeDGPSDM.mWGS84
LongitudeDGPSDM.mWGS84
TemperatureSBE03/SBE38deg celciusITS90
ConductivitySBE21S/mITS90
SalinitySBE21 Practical Salinity Units
ChlorophylAChelsea fluorimeterg/lCalibrated in Aceton
Missing or incorrect values are displayed as -999
Sea surface data collected by the RV Zeeleeuw from 2009-11-06 07:29:44 to 2009-11-06 14:23:38
                                                                                    Next 1000 lines
Time Latitude Longitude Temperature Conductivity Salinity ChlorophylA
2009-11-06 07:29:54 51°13.664 2°55.957 16.9066 0.074008 0.433982 -1.035392
2009-11-06 07:29:59 51°13.665 2°55.954 17.0439 0.074008 0.43399 -1.000568
2009-11-06 07:30:04 51°13.666 2°55.95 17.0232 0.074008 0.43399 -1.000568
2009-11-06 07:30:09 51°13.668 2°55.946 17.0054 0.074008 0.433999 -1.000568
2009-11-06 07:30:15 51°13.669 2°55.94 17.0178 0.074008 0.433999 -1.035392
2009-11-06 07:30:21 51°13.671 2°55.934 17.0343 0.074008 0.433999 -1.035392
2009-11-06 07:30:26 51°13.673 2°55.928 17.0839 0.074008 0.433999 -1.035392
2009-11-06 07:30:32 51°13.675 2°55.921 17.0751 0.074008 0.434007 -1.000568
2009-11-06 07:30:38 51°13.676 2°55.913 17.1025 0.074008 0.434007 -1.035392
2009-11-06 07:30:43 51°13.678 2°55.906 17.0767 0.074008 0.434015 -1.000568
2009-11-06 07:30:48 51°13.679 2°55.899 17.0706 0.074008 0.434015 -1.000568
2009-11-06 07:30:53 51°13.681 2°55.892 17.0721 0.074008 0.434015 -1.000568
2009-11-06 07:30:57 51°13.682 2°55.887 17.0673 0.074008 0.434015 -1.035392
2009-11-06 07:31:03 51°13.683 2°55.878 17.0746 0.074008 0.434015 -1.000568
2009-11-06 07:31:08 51°13.685 2°55.87 17.0781 0.074008 0.434024 -1.000568
2009-11-06 07:31:13 51°13.686 2°55.863 17.1109 0.074008 0.434024 -1.035392
2009-11-06 07:31:17 51°13.687 2°55.857 17.1053 0.074008 0.434032 -1.035392
2009-11-06 07:31:22 51°13.689 2°55.849 17.1064 0.074008 0.434041 -1.035392
2009-11-06 07:31:28 51°13.69 2°55.841 17.1062 0.074008 0.434041 -1.035392
2009-11-06 07:31:33 51°13.691 2°55.834 17.1024 0.074008 0.434049 -1.035392
2009-11-06 07:31:38 51°13.692 2°55.827 17.0955 0.074008 0.434049 -1.000568
2009-11-06 07:31:42 51°13.693 2°55.821 17.0908 0.074008 0.434058 -1.000568
2009-11-06 07:31:48 51°13.695 2°55.812 17.0903 0.074008 0.434058 -1.000568
2009-11-06 07:31:53 51°13.696 2°55.806 17.0913 0.074008 0.434058 -1.035392
2009-11-06 07:31:58 51°13.697 2°55.799 17.0929 0.074008 0.434058 -1.035392
2009-11-06 07:32:02 51°13.698 2°55.793 17.0928 0.074008 0.434058 -1.000568
2009-11-06 07:32:08 51°13.699 2°55.785 17.0934 0.074008 0.434058 -1.000568
2009-11-06 07:32:13 51°13.7 2°55.779 17.0935 0.074008 0.434058 -1.035392
2009-11-06 07:32:18 51°13.7 2°55.773 17.0941 0.074008 0.434066 -1.035392
2009-11-06 07:32:22 51°13.701 2°55.768 17.0939 0.074008 0.434066 -1.035392
2009-11-06 07:32:28 51°13.701 2°55.761 17.0934 0.074008 0.434066 -1.035392
2009-11-06 07:32:33 51°13.702 2°55.756 17.0939 0.074008 0.434066 -1.000568
2009-11-06 07:32:38 51°13.703 2°55.751 17.1003 0.074008 0.434066 -1.000568
2009-11-06 07:32:42 51°13.703 2°55.748 17.1042 0.074008 0.434066 -1.000568
2009-11-06 07:32:47 51°13.703 2°55.744 17.1027 0.074008 0.434074 -1.035392
2009-11-06 07:32:52 51°13.703 2°55.741 17.1032 0.074008 0.434074 -1.035392
2009-11-06 07:32:57 51°13.704 2°55.739 17.1033 0.074008 0.434074 -1.000568
2009-11-06 07:33:02 51°13.704 2°55.738 17.1054 0.074008 0.434074 -1.000568
2009-11-06 07:33:06 51°13.704 2°55.737 17.1084 0.074008 0.434083 -1.035392
2009-11-06 07:33:11 51°13.705 2°55.737 17.1105 0.073905 0.433457 -1.000568
2009-11-06 07:33:16 51°13.706 2°55.736 17.1104 0.073905 0.433466 -1.000568
2009-11-06 07:33:21 51°13.707 2°55.736 17.1092 0.074008 0.434091 -1.035392
2009-11-06 07:33:26 51°13.708 2°55.737 17.1095 0.074008 0.434091 -1.035392
2009-11-06 07:33:30 51°13.708 2°55.737 17.1079 0.074008 0.4341 -1.000568
2009-11-06 07:33:36 51°13.71 2°55.737 17.1033 0.074008 0.4341 -1.035392
2009-11-06 07:33:41 51°13.711 2°55.738 17.0817 0.074008 0.434108 -1.035392
2009-11-06 07:33:45 51°13.712 2°55.738 17.0709 0.074008 0.434116 -1.000568
2009-11-06 07:33:50 51°13.713 2°55.738 17.0565 0.073905 0.433491 -1.035392
2009-11-06 07:33:55 51°13.714 2°55.738 17.0536 0.073905 0.433491 -1.035392
2009-11-06 07:34:00 51°13.715 2°55.737 17.0646 0.073905 0.433491 -1.000568
2009-11-06 07:34:05 51°13.715 2°55.737 16.9848 0.073905 0.433499 -1.035392
2009-11-06 07:34:10 51°13.715 2°55.736 16.9951 0.073905 0.433491 -1.035392
2009-11-06 07:34:14 51°13.714 2°55.735 17.0273 0.073905 0.433491 -1.000568
2009-11-06 07:34:19 51°13.713 2°55.734 17.0586 0.073905 0.433491 -1.000568
2009-11-06 07:34:24 51°13.712 2°55.733 17.0663 0.073905 0.433491 -1.035392
2009-11-06 07:34:29 51°13.711 2°55.731 17.0936 0.074008 0.434116 -1.000568
2009-11-06 07:34:34 51°13.709 2°55.73 17.1036 0.073905 0.433499 -1.000568
2009-11-06 07:34:39 51°13.708 2°55.729 17.1116 0.073905 0.433499 -1.000568
2009-11-06 07:34:45 51°13.706 2°55.728 17.1122 0.073905 0.433499 -1.035392
2009-11-06 07:34:50 51°13.705 2°55.727 17.1261 0.073905 0.433499 -1.035392
2009-11-06 07:34:54 51°13.705 2°55.726 17.1559 0.073905 0.433499 -1.035392
2009-11-06 07:34:59 51°13.705 2°55.725 17.1881 0.073905 0.433508 -1.035392
2009-11-06 07:35:04 51°13.706 2°55.724 17.1948 0.073905 0.433508 -1.035392
2009-11-06 07:35:09 51°13.708 2°55.723 17.2019 0.073905 0.433516 -1.000568
2009-11-06 07:35:15 51°13.712 2°55.72 17.1949 0.073905 0.433524 -1.000568
2009-11-06 07:35:19 51°13.715 2°55.718 17.1841 0.073905 0.433524 -1.035392
2009-11-06 07:35:24 51°13.719 2°55.715 17.1793 0.073905 0.433524 -1.035392
2009-11-06 07:35:29 51°13.724 2°55.712 17.168 0.073905 0.433533 -1.000568
2009-11-06 07:35:34 51°13.729 2°55.708 17.133 0.073905 0.433524 -1.000568
2009-11-06 07:35:39 51°13.734 2°55.703 17.0973 0.073905 0.433533 -1.000568
2009-11-06 07:35:44 51°13.74 2°55.699 17.0998 0.073905 0.433533 -1.000568
2009-11-06 07:35:49 51°13.747 2°55.694 17.08 0.073905 0.433533 -1.000568
2009-11-06 07:35:54 51°13.753 2°55.689 17.0706 0.073905 0.433533 -1.000568
2009-11-06 07:35:59 51°13.76 2°55.683 17.0386 0.073905 0.433533 -1.000568
2009-11-06 07:36:04 51°13.767 2°55.678 17.0468 0.073905 0.433541 -1.000568
2009-11-06 07:36:09 51°13.775 2°55.672 17.0539 0.073905 0.433541 -1.000568
2009-11-06 07:36:14 51°13.782 2°55.666 17.0561 0.073905 0.43355 -1.000568
2009-11-06 07:36:19 51°13.791 2°55.661 17.045 0.073905 0.43355 -1.000568
2009-11-06 07:36:24 51°13.799 2°55.655 17.0394 0.073905 0.43355 -1.000568
2009-11-06 07:36:29 51°13.808 2°55.648 17.0375 0.073905 0.43355 -1.035392
2009-11-06 07:36:34 51°13.817 2°55.642 17.0661 0.073905 0.433558 -1.000568
2009-11-06 07:36:39 51°13.826 2°55.636 17.0446 0.073905 0.433558 -1.000568
2009-11-06 07:36:44 51°13.835 2°55.629 17.049 0.073905 0.433558 -1.000568
2009-11-06 07:36:49 51°13.845 2°55.622 17.0746 0.073905 0.433567 -1.000568
2009-11-06 07:36:54 51°13.854 2°55.615 17.0674 0.073905 0.433567 -1.000568
2009-11-06 07:36:59 51°13.863 2°55.608 17.081 0.073905 0.433567 -1.035392
2009-11-06 07:37:04 51°13.873 2°55.601 17.0795 0.073905 0.433567 -1.000568
2009-11-06 07:37:09 51°13.883 2°55.594 17.1013 0.073905 0.433575 -1.035392
2009-11-06 07:37:14 51°13.893 2°55.586 17.0836 0.073905 0.433575 -1.000568
2009-11-06 07:37:19 51°13.902 2°55.579 17.1003 0.073905 0.433583 -1.000568
2009-11-06 07:37:24 51°13.913 2°55.571 17.1046 0.073905 0.433583 -1.000568
2009-11-06 07:37:29 51°13.923 2°55.564 17.1027 0.073905 0.433583 -1.035392
2009-11-06 07:37:34 51°13.933 2°55.556 17.0856 0.073905 0.433592 -1.035392
2009-11-06 07:37:39 51°13.943 2°55.548 17.0958 0.073905 0.433592 -1.000568
2009-11-06 07:37:44 51°13.954 2°55.541 17.0796 0.073905 0.4336 -1.000568
2009-11-06 07:37:49 51°13.965 2°55.533 17.1143 0.073905 0.4336 -1.000568
2009-11-06 07:37:54 51°13.976 2°55.525 17.049 0.073905 0.4336 -1.000568
2009-11-06 07:37:59 51°13.986 2°55.517 17.0662 0.073905 0.4336 -1.035392
2009-11-06 07:38:04 51°13.997 2°55.508 17.0736 0.073905 0.4336 -1.000568
2009-11-06 07:38:09 51°14.007 2°55.5 17.0808 0.073905 0.4336 -1.000568
2009-11-06 07:38:14 51°14.018 2°55.492 17.0875 0.073905 0.433609 -1.000568
2009-11-06 07:38:19 51°14.029 2°55.484 17.077 0.073905 0.433609 -1.035392
2009-11-06 07:38:24 51°14.04 2°55.476 17.1119 0.073905 0.433609 -1.035392
2009-11-06 07:38:29 51°14.051 2°55.467 17.0693 0.073905 0.433617 -1.000568
2009-11-06 07:38:34 51°14.061 2°55.459 17.0621 0.073905 0.433617 -1.000568
2009-11-06 07:38:38 51°14.07 2°55.452 17.0901 0.073905 0.433617 -1.000568
2009-11-06 07:38:44 51°14.083 2°55.442 17.0714 0.073905 0.433625 -1.000568
2009-11-06 07:38:49 51°14.094 2°55.432 17.1055 0.073905 0.433625 -1.000568
2009-11-06 07:38:54 51°14.105 2°55.423 17.0941 0.073905 0.433625 -1.000568
2009-11-06 07:38:59 51°14.115 2°55.414 17.0567 0.073905 0.433625 -1.000568
2009-11-06 07:39:04 51°14.126 2°55.404 17.0602 0.073905 0.433625 -1.000568
2009-11-06 07:39:09 51°14.137 2°55.395 17.1033 0.073905 0.433625 -1.000568
2009-11-06 07:39:14 51°14.148 2°55.385 17.1407 0.073905 0.433625 -1.035392
2009-11-06 07:39:19 51°14.158 2°55.375 17.1021 0.073905 0.433625 -1.035392
2009-11-06 07:39:24 51°14.169 2°55.365 17.1 0.073905 0.433634 -1.000568
2009-11-06 07:39:29 51°14.179 2°55.353 17.1072 0.073905 0.433634 -1.000568
2009-11-06 07:39:34 51°14.189 2°55.342 17.0953 0.073905 0.433634 -1.000568
2009-11-06 07:39:39 51°14.199 2°55.33 17.0553 0.073905 0.433634 -1.000568
2009-11-06 07:39:44 51°14.209 2°55.318 17.0794 0.073905 0.433642 -1.000568
2009-11-06 07:39:49 51°14.219 2°55.305 17.1403 0.073905 0.433642 -1.000568
2009-11-06 07:39:54 51°14.228 2°55.292 17.1306 0.073905 0.433634 -1.000568
2009-11-06 07:39:59 51°14.238 2°55.279 17.011 0.073905 0.433642 -1.000568
2009-11-06 07:40:04 51°14.247 2°55.265 17.0387 0.073905 0.433642 -1.000568
2009-11-06 07:40:09 51°14.256 2°55.251 17.0954 0.073905 0.433642 -1.000568
2009-11-06 07:40:14 51°14.265 2°55.236 17.1134 0.073905 0.433651 -1.000568
2009-11-06 07:40:19 51°14.275 2°55.222 17.1213 0.073905 0.433651 -1.035392
2009-11-06 07:40:24 51°14.284 2°55.206 17.1019 0.073905 0.433651 -1.035392
2009-11-06 07:40:29 51°14.293 2°55.19 17.0398 0.073905 0.433659 -1.000568
2009-11-06 07:40:34 51°14.302 2°55.174 17.0387 0.073905 0.433659 -1.000568
2009-11-06 07:40:38 51°14.31 2°55.161 16.9656 0.073905 0.433659 -1.000568
2009-11-06 07:40:44 51°14.321 2°55.141 16.963 0.073905 0.433659 -1.035392
2009-11-06 07:40:49 51°14.33 2°55.123 17.0313 0.073905 0.433659 -1.000568
2009-11-06 07:40:54 51°14.339 2°55.106 17.059 0.073905 0.433659 -1.000568
2009-11-06 07:40:59 51°14.348 2°55.088 17.0201 0.073905 0.433659 -1.000568
2009-11-06 07:41:04 51°14.357 2°55.07 16.9836 0.073905 0.433659 -1.035392
2009-11-06 07:41:09 51°14.367 2°55.052 16.9537 0.073905 0.433659 -1.000568
2009-11-06 07:41:14 51°14.376 2°55.034 16.9578 0.073905 0.433668 -1.000568
2009-11-06 07:41:19 51°14.385 2°55.016 17.0459 0.073905 0.433668 -1.000568
2009-11-06 07:41:24 51°14.395 2°54.998 17.0083 0.073905 0.433668 -1.000568
2009-11-06 07:41:29 51°14.404 2°54.979 16.9149 0.073905 0.433676 -1.000568
2009-11-06 07:41:34 51°14.414 2°54.961 16.9437 0.073905 0.433676 -1.035392
2009-11-06 07:41:39 51°14.424 2°54.944 16.9853 0.073905 0.433668 -1.035392
2009-11-06 07:41:44 51°14.435 2°54.927 16.8765 0.073905 0.433684 -1.000568
2009-11-06 07:41:49 51°14.446 2°54.909 16.989 0.073905 0.433684 -1.000568
2009-11-06 07:41:54 51°14.457 2°54.892 16.8911 0.073905 0.433684 -1.000568
2009-11-06 07:41:59 51°14.467 2°54.875 16.9693 0.073905 0.433684 -1.000568
2009-11-06 07:42:04 51°14.478 2°54.857 16.9438 0.073905 0.433693 -1.035392
2009-11-06 07:42:09 51°14.49 2°54.841 16.9524 0.073905 0.433684 -1.035392
2009-11-06 07:42:14 51°14.501 2°54.825 16.9375 0.073905 0.433693 -1.035392
2009-11-06 07:42:19 51°14.514 2°54.81 16.9551 0.073905 0.433693 -1.000568
2009-11-06 07:42:24 51°14.526 2°54.795 16.9754 0.073905 0.433693 -1.000568
2009-11-06 07:42:29 51°14.539 2°54.781 16.9386 0.073905 0.433701 -1.035392
2009-11-06 07:42:34 51°14.552 2°54.767 16.8929 0.073905 0.43371 -1.035392
2009-11-06 07:42:39 51°14.564 2°54.753 16.9002 0.073905 0.43371 -1.000568
2009-11-06 07:42:44 51°14.577 2°54.74 16.9244 0.073905 0.433701 -1.000568
2009-11-06 07:42:49 51°14.591 2°54.728 16.9563 0.073905 0.43371 -1.000568
2009-11-06 07:42:54 51°14.604 2°54.718 16.9321 0.073905 0.43371 -1.000568
2009-11-06 07:42:58 51°14.615 2°54.709 16.9391 0.073905 0.433718 -1.000568
2009-11-06 07:43:04 51°14.631 2°54.696 16.9127 0.073905 0.433726 -1.000568
2009-11-06 07:43:09 51°14.645 2°54.685 16.8896 0.073905 0.433726 -1.035392
2009-11-06 07:43:14 51°14.658 2°54.674 16.8869 0.073905 0.433726 -1.035392
2009-11-06 07:43:19 51°14.672 2°54.663 16.9251 0.073905 0.433726 -1.035392
2009-11-06 07:43:24 51°14.685 2°54.652 16.9348 0.073905 0.433726 -1.000568
2009-11-06 07:43:29 51°14.699 2°54.641 16.841 0.073905 0.433726 -1.000568
2009-11-06 07:43:34 51°14.713 2°54.63 16.8584 0.073905 0.433726 -1.000568
2009-11-06 07:43:38 51°14.724 2°54.622 16.9254 0.073905 0.433735 -1.035392
2009-11-06 07:43:44 51°14.74 2°54.609 16.8546 0.073905 0.433735 -1.000568
2009-11-06 07:43:49 51°14.754 2°54.599 16.8942 0.073905 0.433735 -1.000568
2009-11-06 07:43:54 51°14.768 2°54.588 16.8827 0.073905 0.433735 -1.035392
2009-11-06 07:43:59 51°14.781 2°54.578 16.835 0.073905 0.433735 -1.000568
2009-11-06 07:44:04 51°14.795 2°54.569 16.8854 0.073905 0.433743 -1.000568
2009-11-06 07:44:09 51°14.809 2°54.558 16.871 0.073905 0.433743 -1.035392
2009-11-06 07:44:14 51°14.823 2°54.548 16.899 0.073905 0.433752 -1.035392
2009-11-06 07:44:18 51°14.834 2°54.54 16.8661 0.073905 0.433752 -1.035392
2009-11-06 07:44:24 51°14.85 2°54.527 16.8989 0.073905 0.433752 -1.035392
2009-11-06 07:44:29 51°14.864 2°54.517 16.8483 0.073905 0.433752 -1.000568
2009-11-06 07:44:34 51°14.878 2°54.507 16.895 0.073905 0.433752 -1.000568
2009-11-06 07:44:39 51°14.892 2°54.497 16.8845 0.073905 0.43376 -1.035392
2009-11-06 07:44:44 51°14.905 2°54.487 16.8959 0.073905 0.43376 -1.035392
2009-11-06 07:44:49 51°14.919 2°54.477 16.854 0.073905 0.43376 -1.035392
2009-11-06 07:44:54 51°14.933 2°54.467 16.8874 0.073905 0.433769 -1.000568
2009-11-06 07:44:58 51°14.944 2°54.459 16.8568 0.073905 0.433769 -1.035392
2009-11-06 07:45:04 51°14.96 2°54.446 16.8808 0.073905 0.433769 -1.000568
2009-11-06 07:45:09 51°14.974 2°54.436 16.8342 0.073905 0.433769 -1.035392
2009-11-06 07:45:14 51°14.988 2°54.427 16.8704 0.073905 0.433777 -1.000568
2009-11-06 07:45:18 51°14.999 2°54.418 16.8244 0.073905 0.433777 -1.000568
2009-11-06 07:45:24 51°15.015 2°54.406 16.8383 0.073905 0.433777 -1.035392
2009-11-06 07:45:29 51°15.029 2°54.395 16.8695 0.073905 0.433777 -1.035392
2009-11-06 07:45:34 51°15.043 2°54.385 16.8636 0.073905 0.433777 -1.000568
2009-11-06 07:45:38 51°15.054 2°54.377 16.8688 0.073905 0.433785 -1.000568
2009-11-06 07:45:44 51°15.071 2°54.365 16.8808 0.073905 0.433785 -1.035392
2009-11-06 07:45:49 51°15.085 2°54.355 16.7614 0.073905 0.433785 -1.000568
2009-11-06 07:45:54 51°15.099 2°54.345 16.7892 0.073905 0.433785 -1.000568
2009-11-06 07:45:59 51°15.112 2°54.335 16.8356 0.073905 0.433785 -1.035392
2009-11-06 07:46:04 51°15.126 2°54.325 16.8131 0.073905 0.433794 -1.035392
2009-11-06 07:46:09 51°15.14 2°54.315 16.818 0.073905 0.433794 -1.000568
2009-11-06 07:46:14 51°15.154 2°54.305 16.7962 0.073905 0.433802 -1.035392
2009-11-06 07:46:19 51°15.168 2°54.295 16.8144 0.073905 0.433811 -1.000568
2009-11-06 07:46:24 51°15.182 2°54.284 16.8072 0.073905 0.433811 -1.000568
2009-11-06 07:46:29 51°15.195 2°54.274 16.8287 0.073905 0.433811 -1.035392
2009-11-06 07:46:34 51°15.209 2°54.263 16.7631 0.073905 0.433811 -1.035392
2009-11-06 07:46:39 51°15.223 2°54.253 16.844 0.073905 0.433811 -1.035392
2009-11-06 07:46:44 51°15.237 2°54.243 16.8258 0.073905 0.433819 -1.035392
2009-11-06 07:46:49 51°15.251 2°54.233 16.8165 0.073905 0.433819 -1.035392
2009-11-06 07:46:54 51°15.264 2°54.223 16.8013 0.073905 0.433819 -1.035392
2009-11-06 07:46:58 51°15.276 2°54.215 16.8226 0.073905 0.433819 -1.035392
2009-11-06 07:47:04 51°15.292 2°54.202 16.8589 0.073905 0.433819 -1.035392
2009-11-06 07:47:09 51°15.306 2°54.192 16.8367 0.073905 0.433828 -1.035392
2009-11-06 07:47:14 51°15.319 2°54.182 16.8064 0.073905 0.433828 -1.000568
2009-11-06 07:47:18 51°15.331 2°54.173 16.7823 0.073905 0.433828 -1.000568
2009-11-06 07:47:24 51°15.347 2°54.161 16.8176 0.073905 0.433828 -1.035392
2009-11-06 07:47:29 51°15.361 2°54.151 16.8105 0.073905 0.433836 -1.035392
2009-11-06 07:47:34 51°15.375 2°54.141 16.8311 0.073905 0.433836 -1.035392
2009-11-06 07:47:38 51°15.386 2°54.133 16.8159 0.073905 0.433844 -1.035392
2009-11-06 07:47:44 51°15.402 2°54.121 16.8093 0.073905 0.433844 -1.035392
2009-11-06 07:47:49 51°15.416 2°54.111 16.8393 0.073905 0.433844 -1.035392
2009-11-06 07:47:54 51°15.43 2°54.101 16.8391 0.073905 0.433844 -1.035392
2009-11-06 07:47:59 51°15.444 2°54.091 16.8307 0.073905 0.433853 -1.035392
2009-11-06 07:48:04 51°15.458 2°54.081 16.8507 0.073905 0.433853 -1.035392
2009-11-06 07:48:09 51°15.472 2°54.071 16.7868 0.073905 0.433861 -1.035392
2009-11-06 07:48:14 51°15.486 2°54.061 16.7868 0.073905 0.43387 -1.035392
2009-11-06 07:48:18 51°15.497 2°54.053 16.84 0.073905 0.43387 -1.035392
2009-11-06 07:48:24 51°15.514 2°54.041 16.8029 0.073905 0.43387 -1.035392
2009-11-06 07:48:29 51°15.528 2°54.03 16.8127 0.073905 0.43387 -1.035392
2009-11-06 07:48:34 51°15.542 2°54.019 16.7993 0.073905 0.43387 -1.035392
2009-11-06 07:48:39 51°15.555 2°54.009 16.7838 0.073905 0.433878 -1.000568
2009-11-06 07:48:44 51°15.569 2°53.999 16.8395 0.073905 0.433878 -1.035392
2009-11-06 07:48:49 51°15.583 2°53.988 16.8604 0.073905 0.433878 -1.035392
2009-11-06 07:48:54 51°15.597 2°53.978 16.771 0.073905 0.433878 -1.035392
2009-11-06 07:48:59 51°15.611 2°53.967 16.8201 0.073905 0.433887 -1.035392
2009-11-06 07:49:04 51°15.625 2°53.957 16.8319 0.073905 0.433887 -1.000568
2009-11-06 07:49:09 51°15.639 2°53.946 16.8379 0.073905 0.433887 -1.035392
2009-11-06 07:49:14 51°15.653 2°53.936 16.7656 0.073905 0.433895 -1.035392
2009-11-06 07:49:19 51°15.666 2°53.926 16.8372 0.073905 0.433895 -1.000568
2009-11-06 07:49:24 51°15.68 2°53.916 16.8341 0.073905 0.433895 -1.000568
2009-11-06 07:49:29 51°15.694 2°53.905 16.831 0.073905 0.433903 -1.035392
2009-11-06 07:49:34 51°15.708 2°53.895 16.8149 0.073905 0.433903 -1.035392
2009-11-06 07:49:38 51°15.719 2°53.886 16.7834 0.073905 0.433912 -1.035392
2009-11-06 07:49:44 51°15.736 2°53.873 16.7792 0.073905 0.433912 -1.000568
2009-11-06 07:49:49 51°15.75 2°53.863 16.8316 0.073905 0.433912 -1.035392
2009-11-06 07:49:54 51°15.764 2°53.852 16.8318 0.073905 0.433912 -1.035392
2009-11-06 07:49:58 51°15.775 2°53.844 16.8185 0.073905 0.43392 -1.035392
2009-11-06 07:50:04 51°15.791 2°53.831 16.7979 0.073905 0.43392 -1.035392
2009-11-06 07:50:09 51°15.805 2°53.82 16.8362 0.073905 0.433929 -1.035392
2009-11-06 07:50:14 51°15.819 2°53.809 16.8233 0.073905 0.433929 -1.035392
2009-11-06 07:50:18 51°15.83 2°53.801 16.8356 0.073905 0.433929 -1.035392
2009-11-06 07:50:24 51°15.847 2°53.788 16.7974 0.073905 0.433929 -1.035392
2009-11-06 07:50:29 51°15.861 2°53.777 16.7757 0.073905 0.433937 -1.035392
2009-11-06 07:50:34 51°15.875 2°53.766 16.8421 0.073905 0.433937 -1.035392
2009-11-06 07:50:39 51°15.889 2°53.756 16.8448 0.073905 0.433937 -1.035392
2009-11-06 07:50:44 51°15.902 2°53.745 16.8212 0.073905 0.433954 -1.000568
2009-11-06 07:50:49 51°15.916 2°53.732 16.8242 0.073905 0.433954 -1.000568
2009-11-06 07:50:54 51°15.929 2°53.72 16.8494 0.073905 0.433954 -1.035392
2009-11-06 07:50:59 51°15.942 2°53.707 16.8383 0.073905 0.433971 -1.000568
2009-11-06 07:51:04 51°15.955 2°53.693 16.8236 0.073905 0.433962 -1.000568
2009-11-06 07:51:09 51°15.968 2°53.679 16.8404 0.073905 0.433971 -1.035392
2009-11-06 07:51:14 51°15.981 2°53.665 16.8309 0.073905 0.433962 -1.035392
2009-11-06 07:51:19 51°15.993 2°53.651 16.8387 0.073905 0.433971 -1.035392
2009-11-06 07:51:24 51°16.006 2°53.636 16.8311 0.073905 0.433971 -1.035392
2009-11-06 07:51:29 51°16.019 2°53.621 16.8353 0.073905 0.433971 -1.035392
2009-11-06 07:51:34 51°16.031 2°53.606 16.8221 0.073905 0.433971 -1.035392
2009-11-06 07:51:38 51°16.041 2°53.594 16.8215 0.073905 0.433979 -1.035392
2009-11-06 07:51:44 51°16.056 2°53.576 16.811 0.073905 0.433979 -1.035392
2009-11-06 07:51:49 51°16.069 2°53.56 16.8342 0.073905 0.433979 -1.035392
2009-11-06 07:51:54 51°16.082 2°53.545 16.805 0.073905 0.433979 -1.035392
2009-11-06 07:51:58 51°16.092 2°53.533 16.8278 0.073905 0.433979 -1.035392
2009-11-06 07:52:04 51°16.107 2°53.516 16.7714 0.073905 0.433988 -1.035392
2009-11-06 07:52:09 51°16.119 2°53.501 16.8295 0.073905 0.433988 -1.035392
2009-11-06 07:52:14 51°16.132 2°53.487 16.7921 0.073905 0.434005 -1.000568
2009-11-06 07:52:18 51°16.143 2°53.475 16.7851 0.073905 0.434005 -1.000568
2009-11-06 07:52:24 51°16.158 2°53.458 16.7874 0.073905 0.434005 -1.000568
2009-11-06 07:52:29 51°16.171 2°53.443 16.8421 0.073905 0.434005 -1.035392
2009-11-06 07:52:34 51°16.184 2°53.429 16.8254 0.073905 0.434013 -1.035392
2009-11-06 07:52:38 51°16.194 2°53.418 16.826 0.073905 0.434013 -1.035392
2009-11-06 07:52:44 51°16.21 2°53.401 16.812 0.073905 0.434013 -1.035392
2009-11-06 07:52:49 51°16.223 2°53.387 16.8345 0.073905 0.434013 -1.035392
2009-11-06 07:52:54 51°16.236 2°53.373 16.8465 0.073905 0.434022 -1.035392
2009-11-06 07:52:59 51°16.249 2°53.359 16.7993 0.073905 0.434022 -1.035392
2009-11-06 07:53:04 51°16.262 2°53.345 16.8459 0.073905 0.434022 -1.000568
2009-11-06 07:53:09 51°16.275 2°53.331 16.8036 0.073905 0.43403 -1.035392
2009-11-06 07:53:14 51°16.289 2°53.317 16.8549 0.073905 0.43403 -1.035392
2009-11-06 07:53:18 51°16.299 2°53.306 16.8309 0.073905 0.434038 -1.035392
2009-11-06 07:53:24 51°16.315 2°53.289 16.8421 0.073905 0.434038 -1.035392
2009-11-06 07:53:29 51°16.328 2°53.275 16.8332 0.073905 0.434038 -1.000568
2009-11-06 07:53:34 51°16.341 2°53.261 16.8416 0.073905 0.434047 -1.035392
2009-11-06 07:53:39 51°16.354 2°53.247 16.8214 0.073905 0.434047 -1.035392
2009-11-06 07:53:44 51°16.367 2°53.233 16.8266 0.073905 0.434055 -1.035392
2009-11-06 07:53:49 51°16.38 2°53.219 16.8207 0.073905 0.434055 -1.035392
2009-11-06 07:53:54 51°16.393 2°53.206 16.8195 0.073905 0.434055 -1.000568
2009-11-06 07:53:58 51°16.403 2°53.195 16.8417 0.073905 0.434064 -1.035392
2009-11-06 07:54:04 51°16.419 2°53.178 16.8271 0.073905 0.434072 -1.035392
2009-11-06 07:54:09 51°16.431 2°53.164 16.8181 0.073905 0.434064 -1.035392
2009-11-06 07:54:14 51°16.445 2°53.15 16.8044 0.073905 0.434072 -1.035392
2009-11-06 07:54:18 51°16.455 2°53.139 16.7413 0.073905 0.434072 -1.035392
2009-11-06 07:54:24 51°16.47 2°53.123 16.7948 0.073905 0.434072 -1.035392
2009-11-06 07:54:29 51°16.483 2°53.11 16.7833 0.073905 0.434081 -1.035392
2009-11-06 07:54:34 51°16.497 2°53.096 16.7791 0.073905 0.434089 -1.000568
2009-11-06 07:54:38 51°16.507 2°53.085 16.773 0.073905 0.434081 -1.035392
2009-11-06 07:54:44 51°16.523 2°53.069 16.777 0.073905 0.434089 -1.035392
2009-11-06 07:54:49 51°16.536 2°53.056 16.7817 0.073905 0.434097 -1.035392
2009-11-06 07:54:54 51°16.549 2°53.042 16.7813 0.073905 0.434097 -1.035392
2009-11-06 07:54:58 51°16.559 2°53.031 16.7814 0.073905 0.434097 -1.000568
2009-11-06 07:55:04 51°16.575 2°53.015 16.7829 0.073905 0.434097 -1.035392
2009-11-06 07:55:09 51°16.588 2°53.001 16.7847 0.073905 0.434106 -1.035392
2009-11-06 07:55:14 51°16.601 2°52.988 16.7884 0.073905 0.434106 -1.035392
2009-11-06 07:55:18 51°16.611 2°52.977 16.7892 0.073905 0.434106 -1.035392
2009-11-06 07:55:24 51°16.627 2°52.961 16.792 0.073905 0.434106 -1.035392
2009-11-06 07:55:29 51°16.64 2°52.948 16.7946 0.073905 0.434114 -1.035392
2009-11-06 07:55:34 51°16.653 2°52.934 16.7955 0.073905 0.434114 -1.035392
2009-11-06 07:55:39 51°16.666 2°52.921 16.7972 0.073905 0.434123 -1.035392
2009-11-06 07:55:44 51°16.68 2°52.907 16.8 0.073905 0.434123 -1.000568
2009-11-06 07:55:49 51°16.693 2°52.894 16.8029 0.073905 0.434123 -1.000568
2009-11-06 07:55:54 51°16.706 2°52.881 16.8051 0.073905 0.434131 -1.000568
2009-11-06 07:55:59 51°16.719 2°52.868 16.8071 0.073905 0.434131 -1.000568
2009-11-06 07:56:04 51°16.732 2°52.855 16.8094 0.073905 0.43414 -1.035392
2009-11-06 07:56:09 51°16.745 2°52.842 16.8116 0.073905 0.43414 -1.035392
2009-11-06 07:56:14 51°16.758 2°52.828 16.8127 0.073905 0.434148 -1.035392
2009-11-06 07:56:18 51°16.769 2°52.818 16.8134 0.073905 0.434148 -1.035392
2009-11-06 07:56:24 51°16.785 2°52.803 16.8173 0.073905 0.43414 -1.035392
2009-11-06 07:56:29 51°16.798 2°52.792 16.8179 0.073905 0.434148 -1.035392
2009-11-06 07:56:34 51°16.811 2°52.781 16.821 0.073905 0.434148 -1.000568
2009-11-06 07:56:38 51°16.822 2°52.772 16.8208 0.073905 0.434157 -1.000568
2009-11-06 07:56:44 51°16.838 2°52.759 16.8247 0.073905 0.434157 -1.000568
2009-11-06 07:56:49 51°16.852 2°52.748 16.8284 0.073905 0.434165 -1.035392
2009-11-06 07:56:54 51°16.865 2°52.738 16.8248 0.073905 0.434165 -1.035392
2009-11-06 07:56:58 51°16.876 2°52.73 16.8333 0.073905 0.434157 -1.000568
2009-11-06 07:57:04 51°16.893 2°52.72 16.8333 0.073905 0.434165 -1.000568
2009-11-06 07:57:09 51°16.907 2°52.711 16.8323 0.073905 0.434165 -1.035392
2009-11-06 07:57:14 51°16.921 2°52.704 16.834 0.073905 0.434182 -1.035392
2009-11-06 07:57:18 51°16.932 2°52.697 16.8429 0.073905 0.43419 -1.000568
2009-11-06 07:57:24 51°16.949 2°52.689 16.8471 0.073905 0.43419 -1.000568
2009-11-06 07:57:29 51°16.963 2°52.682 16.8461 0.073905 0.434182 -1.000568
2009-11-06 07:57:34 51°16.977 2°52.676 16.8484 0.073905 0.434199 -1.035392
2009-11-06 07:57:38 51°16.989 2°52.671 16.8489 0.073905 0.434182 -1.035392
2009-11-06 07:57:44 51°17.006 2°52.666 16.8551 0.073905 0.434207 -1.000568
2009-11-06 07:57:49 51°17.021 2°52.661 16.8547 0.073905 0.434207 -1.000568
2009-11-06 07:57:54 51°17.036 2°52.658 16.8599 0.073905 0.43419 -1.035392
2009-11-06 07:57:59 51°17.05 2°52.655 16.8607 0.073905 0.434207 -1.000568
2009-11-06 07:58:04 51°17.065 2°52.653 16.866 0.073905 0.434207 -1.035392
2009-11-06 07:58:09 51°17.079 2°52.65 16.8656 0.073905 0.434216 -1.035392
2009-11-06 07:58:14 51°17.094 2°52.648 16.8698 0.073905 0.434216 -1.035392
2009-11-06 07:58:19 51°17.108 2°52.647 16.8694 0.073905 0.434216 -1.000568
2009-11-06 07:58:24 51°17.123 2°52.645 16.8733 0.073905 0.434216 -1.000568
2009-11-06 07:58:29 51°17.137 2°52.644 16.873 0.073905 0.434224 -1.035392
2009-11-06 07:58:34 51°17.152 2°52.642 16.8766 0.073905 0.434224 -1.035392
2009-11-06 07:58:38 51°17.164 2°52.642 16.8775 0.073905 0.434233 -1.035392
2009-11-06 07:58:44 51°17.181 2°52.64 16.8813 0.073905 0.434233 -1.035392
2009-11-06 07:58:49 51°17.196 2°52.639 16.8842 0.073802 0.433597 -1.035392
2009-11-06 07:58:54 51°17.21 2°52.638 16.8875 0.073802 0.433597 -1.035392
2009-11-06 07:58:58 51°17.222 2°52.638 16.8872 0.073905 0.434233 -1.035392
2009-11-06 07:59:04 51°17.239 2°52.636 16.8901 0.073905 0.434233 -1.035392
2009-11-06 07:59:09 51°17.254 2°52.635 16.8945 0.073905 0.434241 -1.035392
2009-11-06 07:59:14 51°17.269 2°52.635 16.8978 0.073802 0.433614 -1.035392
2009-11-06 07:59:19 51°17.283 2°52.634 16.8967 0.073802 0.433623 -1.000568
2009-11-06 07:59:24 51°17.298 2°52.633 16.9019 0.073802 0.433623 -1.000568
2009-11-06 07:59:29 51°17.313 2°52.632 16.9023 0.073905 0.434258 -1.035392
2009-11-06 07:59:34 51°17.327 2°52.63 16.9073 0.073802 0.433631 -1.035392
2009-11-06 07:59:38 51°17.339 2°52.629 16.9093 0.073802 0.433631 -1.035392
2009-11-06 07:59:44 51°17.357 2°52.628 16.9097 0.073802 0.43364 -1.035392
2009-11-06 07:59:49 51°17.372 2°52.627 16.9122 0.073802 0.43364 -1.035392
2009-11-06 07:59:54 51°17.387 2°52.626 16.9141 0.073905 0.434266 -1.035392
2009-11-06 07:59:59 51°17.402 2°52.625 16.9156 0.073905 0.434275 -1.000568
2009-11-06 08:00:04 51°17.416 2°52.624 16.9182 0.073905 0.434275 -1.035392
2009-11-06 08:00:09 51°17.431 2°52.623 16.9205 0.073802 0.433648 -1.035392
2009-11-06 08:00:14 51°17.446 2°52.622 16.9239 0.073802 0.433656 -1.035392
2009-11-06 08:00:19 51°17.46 2°52.621 16.9258 0.073802 0.433665 -1.035392
2009-11-06 08:00:24 51°17.475 2°52.62 16.9275 0.073802 0.433665 -1.035392
2009-11-06 08:00:29 51°17.49 2°52.618 16.9337 0.073802 0.433665 -1.000568
2009-11-06 08:00:34 51°17.504 2°52.617 16.9351 0.073802 0.433673 -1.035392
2009-11-06 08:00:38 51°17.516 2°52.616 16.9388 0.073802 0.433673 -1.035392
2009-11-06 08:00:44 51°17.534 2°52.615 16.952 0.073802 0.433682 -1.035392
2009-11-06 08:00:49 51°17.548 2°52.614 16.9554 0.073905 0.434309 -1.035392
2009-11-06 08:00:54 51°17.563 2°52.613 16.95 0.073905 0.434309 -1.035392
2009-11-06 08:00:58 51°17.575 2°52.611 16.9597 0.073802 0.433682 -1.035392
2009-11-06 08:01:04 51°17.592 2°52.61 16.9617 0.073802 0.43369 -1.000568
2009-11-06 08:01:09 51°17.607 2°52.608 16.965 0.073802 0.43369 -1.035392
2009-11-06 08:01:14 51°17.622 2°52.607 16.9671 0.073802 0.433699 -1.035392
2009-11-06 08:01:18 51°17.634 2°52.605 16.9652 0.073802 0.433699 -1.035392
2009-11-06 08:01:24 51°17.651 2°52.604 16.9695 0.073802 0.433699 -1.035392
2009-11-06 08:01:29 51°17.666 2°52.602 16.9697 0.073802 0.433707 -1.035392
2009-11-06 08:01:34 51°17.68 2°52.601 16.9742 0.073802 0.433699 -1.035392
2009-11-06 08:01:38 51°17.692 2°52.6 16.9724 0.073802 0.433715 -1.035392
2009-11-06 08:01:44 51°17.71 2°52.597 16.977 0.073802 0.433715 -1.035392
2009-11-06 08:01:49 51°17.724 2°52.596 16.9807 0.073802 0.433715 -1.035392
2009-11-06 08:01:54 51°17.739 2°52.593 16.9777 0.073802 0.433724 -1.035392
2009-11-06 08:01:58 51°17.751 2°52.591 16.9837 0.073802 0.433724 -1.035392
2009-11-06 08:02:04 51°17.768 2°52.589 16.9815 0.073802 0.433724 -1.035392
2009-11-06 08:02:09 51°17.783 2°52.587 16.9848 0.073802 0.433724 -1.035392
2009-11-06 08:02:14 51°17.798 2°52.585 16.9903 0.073802 0.433732 -1.000568
2009-11-06 08:02:19 51°17.812 2°52.584 16.993 0.073802 0.433741 -1.035392
2009-11-06 08:02:24 51°17.827 2°52.582 16.9941 0.073802 0.433741 -1.035392
2009-11-06 08:02:29 51°17.841 2°52.58 16.9951 0.073802 0.433741 -1.035392
2009-11-06 08:02:34 51°17.856 2°52.578 16.9959 0.073802 0.433749 -1.035392
2009-11-06 08:02:39 51°17.871 2°52.577 17.0016 0.073802 0.433749 -1.000568
2009-11-06 08:02:44 51°17.886 2°52.575 17.0017 0.073802 0.433758 -1.035392
2009-11-06 08:02:49 51°17.9 2°52.574 17.0047 0.073802 0.433758 -1.035392
2009-11-06 08:02:54 51°17.915 2°52.572 17.0122 0.073802 0.433758 -1.035392
2009-11-06 08:02:58 51°17.927 2°52.571 17.01 0.073802 0.433766 -1.035392
2009-11-06 08:03:04 51°17.944 2°52.569 17.0184 0.073802 0.433775 -1.035392
2009-11-06 08:03:09 51°17.959 2°52.567 17.0144 0.073802 0.433775 -1.035392
2009-11-06 08:03:14 51°17.973 2°52.564 17.0196 0.073802 0.433783 -1.035392
2009-11-06 08:03:18 51°17.985 2°52.563 17.0134 0.073802 0.433783 -1.035392
2009-11-06 08:03:24 51°18.002 2°52.56 17.0266 0.073802 0.433783 -1.000568
2009-11-06 08:03:29 51°18.017 2°52.557 17.0237 0.073802 0.433783 -1.000568
2009-11-06 08:03:34 51°18.031 2°52.555 17.0269 0.073802 0.433783 -1.035392
2009-11-06 08:03:38 51°18.043 2°52.553 17.03 0.073802 0.433791 -1.035392
2009-11-06 08:03:44 51°18.061 2°52.55 17.0358 0.073802 0.4338 -1.000568
2009-11-06 08:03:49 51°18.075 2°52.547 17.0369 0.073802 0.4338 -1.035392
2009-11-06 08:03:54 51°18.09 2°52.545 17.033 0.073802 0.4338 -1.035392
2009-11-06 08:03:58 51°18.101 2°52.542 17.0355 0.073802 0.4338 -1.035392
2009-11-06 08:04:04 51°18.119 2°52.54 17.0369 0.073802 0.4338 -1.035392
2009-11-06 08:04:09 51°18.133 2°52.537 17.0435 0.073802 0.4338 -1.035392
2009-11-06 08:04:14 51°18.148 2°52.535 17.0483 0.073802 0.433808 -1.035392
2009-11-06 08:04:19 51°18.162 2°52.532 17.0496 0.073802 0.433808 -1.035392
2009-11-06 08:04:24 51°18.177 2°52.53 17.0519 0.073802 0.433808 -1.035392
2009-11-06 08:04:29 51°18.192 2°52.528 17.0425 0.073802 0.433825 -1.035392
2009-11-06 08:04:34 51°18.206 2°52.526 17.0526 0.073802 0.433825 -1.035392
2009-11-06 08:04:38 51°18.218 2°52.525 17.0544 0.073802 0.433817 -1.000568
2009-11-06 08:04:44 51°18.235 2°52.525 17.0502 0.073802 0.433842 -1.035392
2009-11-06 08:04:49 51°18.25 2°52.524 17.0569 0.073802 0.433842 -1.035392
2009-11-06 08:04:54 51°18.264 2°52.527 17.062 0.073802 0.433825 -1.035392
2009-11-06 08:04:59 51°18.278 2°52.529 17.0577 0.073802 0.433851 -1.035392
2009-11-06 08:05:04 51°18.293 2°52.531 17.0697 0.073802 0.433842 -1.035392
2009-11-06 08:05:09 51°18.307 2°52.534 17.0674 0.073802 0.433851 -1.035392
2009-11-06 08:05:14 51°18.321 2°52.537 17.0746 0.073802 0.433851 -1.035392
2009-11-06 08:05:18 51°18.332 2°52.54 17.0729 0.073802 0.433851 -1.035392
2009-11-06 08:05:24 51°18.349 2°52.544 17.0769 0.073802 0.433859 -1.035392
2009-11-06 08:05:29 51°18.363 2°52.549 17.0768 0.073802 0.433859 -1.035392
2009-11-06 08:05:34 51°18.377 2°52.552 17.0807 0.073802 0.433859 -1.035392
2009-11-06 08:05:39 51°18.392 2°52.556 17.0851 0.073802 0.433867 -1.035392
2009-11-06 08:05:44 51°18.406 2°52.561 17.0896 0.073802 0.433867 -1.035392
2009-11-06 08:05:49 51°18.42 2°52.565 17.0832 0.073802 0.433876 -1.035392
2009-11-06 08:05:54 51°18.434 2°52.569 17.0913 0.073802 0.433876 -1.035392
2009-11-06 08:05:58 51°18.445 2°52.573 17.0919 0.073802 0.433876 -1.035392
2009-11-06 08:06:04 51°18.462 2°52.578 17.099 0.073802 0.433876 -1.035392
2009-11-06 08:06:09 51°18.476 2°52.583 17.0951 0.073802 0.433884 -1.000568
2009-11-06 08:06:14 51°18.49 2°52.586 17.0998 0.073802 0.433884 -1.035392
2009-11-06 08:06:18 51°18.501 2°52.591 17.1042 0.073802 0.433884 -1.035392
2009-11-06 08:06:24 51°18.518 2°52.596 17.1 0.073802 0.433893 -1.035392
2009-11-06 08:06:29 51°18.532 2°52.601 17.1101 0.073802 0.433893 -1.035392
2009-11-06 08:06:34 51°18.546 2°52.606 17.1075 0.073802 0.433901 -1.035392
2009-11-06 08:06:39 51°18.561 2°52.611 17.1069 0.073802 0.433901 -1.035392
2009-11-06 08:06:44 51°18.575 2°52.616 17.1146 0.073802 0.433901 -1.035392
2009-11-06 08:06:49 51°18.589 2°52.62 17.1188 0.073802 0.433901 -1.035392
2009-11-06 08:06:54 51°18.603 2°52.625 17.1042 0.073802 0.43391 -1.035392
2009-11-06 08:06:59 51°18.617 2°52.629 17.0929 0.073802 0.43391 -1.035392
2009-11-06 08:07:04 51°18.631 2°52.635 17.0884 0.073802 0.433918 -1.035392
2009-11-06 08:07:09 51°18.646 2°52.639 17.1022 0.073802 0.433918 -1.000568
2009-11-06 08:07:14 51°18.66 2°52.644 17.1089 0.073802 0.433927 -1.035392
2009-11-06 08:07:18 51°18.671 2°52.648 17.1199 0.073802 0.433927 -1.035392
2009-11-06 08:07:24 51°18.688 2°52.654 17.0953 0.073802 0.433927 -1.035392
2009-11-06 08:07:29 51°18.702 2°52.659 17.1049 0.073802 0.433927 -1.035392
2009-11-06 08:07:34 51°18.716 2°52.664 17.117 0.073802 0.433935 -1.035392
2009-11-06 08:07:39 51°18.73 2°52.668 17.1242 0.073802 0.433943 -1.035392
2009-11-06 08:07:44 51°18.745 2°52.673 17.1411 0.073802 0.433943 -1.000568
2009-11-06 08:07:49 51°18.759 2°52.678 17.1188 0.073802 0.433952 -1.000568
2009-11-06 08:07:54 51°18.773 2°52.682 17.1351 0.073802 0.433952 -1.000568
2009-11-06 08:07:58 51°18.784 2°52.686 17.1359 0.073802 0.433952 -1.035392
2009-11-06 08:08:04 51°18.801 2°52.691 17.135 0.073802 0.43396 -1.035392
2009-11-06 08:08:09 51°18.816 2°52.694 17.1433 0.073802 0.43396 -1.000568
2009-11-06 08:08:14 51°18.83 2°52.698 17.1302 0.073802 0.43396 -1.035392
2009-11-06 08:08:18 51°18.841 2°52.7 17.1503 0.073802 0.43396 -1.035392
2009-11-06 08:08:24 51°18.858 2°52.705 17.1623 0.073802 0.433969 -1.035392
2009-11-06 08:08:29 51°18.873 2°52.709 17.1783 0.073802 0.433969 -1.000568
2009-11-06 08:08:34 51°18.887 2°52.713 17.1692 0.073802 0.433977 -1.035392
2009-11-06 08:08:38 51°18.898 2°52.716 17.1805 0.073802 0.433969 -1.035392
2009-11-06 08:08:44 51°18.915 2°52.722 17.1796 0.073802 0.433977 -1.035392
2009-11-06 08:08:49 51°18.929 2°52.726 17.1806 0.073802 0.433977 -1.035392
2009-11-06 08:08:54 51°18.943 2°52.73 17.1864 0.073802 0.433986 -1.035392
2009-11-06 08:08:58 51°18.955 2°52.734 17.1795 0.073802 0.434003 -1.035392
2009-11-06 08:09:04 51°18.972 2°52.737 17.1835 0.073802 0.433994 -1.000568
2009-11-06 08:09:09 51°18.986 2°52.742 17.1853 0.073802 0.434003 -1.035392
2009-11-06 08:09:14 51°19.001 2°52.745 17.194 0.073802 0.434003 -1.035392
2009-11-06 08:09:19 51°19.015 2°52.749 17.1862 0.073802 0.434003 -1.035392
2009-11-06 08:09:24 51°19.029 2°52.753 17.185 0.073802 0.434003 -1.035392
2009-11-06 08:09:29 51°19.043 2°52.758 17.1546 0.073802 0.434011 -1.035392
2009-11-06 08:09:34 51°19.057 2°52.762 17.179 0.073802 0.434011 -1.035392
2009-11-06 08:09:38 51°19.069 2°52.766 17.1609 0.073802 0.434011 -1.035392
2009-11-06 08:09:44 51°19.086 2°52.771 17.1794 0.073802 0.434019 -1.035392
2009-11-06 08:09:49 51°19.1 2°52.775 17.1896 0.073802 0.434019 -1.000568
2009-11-06 08:09:54 51°19.114 2°52.779 17.1877 0.073802 0.434019 -1.000568
2009-11-06 08:09:58 51°19.126 2°52.783 17.1935 0.073802 0.434028 -1.035392
2009-11-06 08:10:04 51°19.143 2°52.788 17.1923 0.073802 0.434028 -1.035392
2009-11-06 08:10:09 51°19.157 2°52.792 17.1997 0.073802 0.434028 -1.035392
2009-11-06 08:10:14 51°19.171 2°52.796 17.1982 0.073802 0.434028 -1.035392
2009-11-06 08:10:18 51°19.183 2°52.8 17.2103 0.073802 0.434028 -1.035392
2009-11-06 08:10:24 51°19.2 2°52.804 17.193 0.073802 0.434045 -1.035392
2009-11-06 08:10:29 51°19.214 2°52.809 17.2144 0.073802 0.434036 -1.035392
2009-11-06 08:10:34 51°19.228 2°52.813 17.2047 0.073802 0.434045 -1.035392
2009-11-06 08:10:38 51°19.24 2°52.816 17.2205 0.073802 0.434045 -1.035392
2009-11-06 08:10:44 51°19.257 2°52.821 17.2148 0.073802 0.434053 -1.035392
2009-11-06 08:10:49 51°19.271 2°52.825 17.2164 0.073802 0.434053 -1.035392
2009-11-06 08:10:54 51°19.285 2°52.829 17.2288 0.073802 0.434053 -1.035392
2009-11-06 08:10:58 51°19.297 2°52.833 17.2273 0.073802 0.434062 -1.035392
2009-11-06 08:11:04 51°19.314 2°52.838 17.2358 0.073802 0.434053 -1.035392
2009-11-06 08:11:09 51°19.328 2°52.842 17.2245 0.073802 0.43407 -1.035392
2009-11-06 08:11:14 51°19.343 2°52.846 17.2445 0.073802 0.434062 -1.035392
2009-11-06 08:11:19 51°19.357 2°52.85 17.2442 0.073802 0.434062 -1.035392
2009-11-06 08:11:24 51°19.371 2°52.854 17.2487 0.073802 0.434062 -1.035392
2009-11-06 08:11:29 51°19.386 2°52.858 17.2492 0.073802 0.43407 -1.035392
2009-11-06 08:11:34 51°19.4 2°52.862 17.2457 0.073802 0.434079 -1.035392
2009-11-06 08:11:39 51°19.414 2°52.866 17.2483 0.073802 0.434079 -1.035392
2009-11-06 08:11:44 51°19.429 2°52.869 17.2527 0.073802 0.434079 -1.035392
2009-11-06 08:11:49 51°19.443 2°52.874 17.2588 0.073802 0.434079 -1.035392
2009-11-06 08:11:54 51°19.457 2°52.878 17.2674 0.073802 0.434087 -1.035392
2009-11-06 08:11:58 51°19.469 2°52.881 17.2679 0.073802 0.434087 -1.035392
2009-11-06 08:12:04 51°19.486 2°52.886 17.2622 0.073802 0.434087 -1.035392
2009-11-06 08:12:09 51°19.5 2°52.89 17.2715 0.073802 0.434096 -1.035392
2009-11-06 08:12:14 51°19.515 2°52.894 17.2768 0.073802 0.434096 -1.035392
2009-11-06 08:12:18 51°19.526 2°52.897 17.2794 0.073802 0.434096 -1.035392
2009-11-06 08:12:24 51°19.543 2°52.902 17.2768 0.073802 0.434104 -1.035392
2009-11-06 08:12:29 51°19.558 2°52.905 17.2786 0.073802 0.434104 -1.035392
2009-11-06 08:12:34 51°19.572 2°52.909 17.2841 0.073802 0.434104 -1.035392
2009-11-06 08:12:39 51°19.586 2°52.913 17.2961 0.073802 0.434112 -1.035392
2009-11-06 08:12:44 51°19.601 2°52.917 17.276 0.073802 0.434112 -1.035392
2009-11-06 08:12:49 51°19.615 2°52.921 17.2974 0.073802 0.434121 -1.035392
2009-11-06 08:12:54 51°19.629 2°52.925 17.2998 0.073802 0.434121 -1.035392
2009-11-06 08:12:58 51°19.641 2°52.928 17.3002 0.073802 0.434121 -1.035392
2009-11-06 08:13:04 51°19.658 2°52.933 17.3023 0.073802 0.434129 -1.035392
2009-11-06 08:13:09 51°19.672 2°52.937 17.3084 0.073802 0.434129 -1.035392
2009-11-06 08:13:14 51°19.687 2°52.941 17.3155 0.073802 0.434129 -1.035392
2009-11-06 08:13:18 51°19.698 2°52.944 17.3181 0.073802 0.434129 -1.035392
2009-11-06 08:13:24 51°19.715 2°52.949 17.32 0.073802 0.434129 -1.035392
2009-11-06 08:13:29 51°19.729 2°52.953 17.3264 0.073802 0.434138 -1.035392
2009-11-06 08:13:34 51°19.744 2°52.958 17.3008 0.073802 0.434138 -1.035392
2009-11-06 08:13:38 51°19.755 2°52.96 17.3321 0.073802 0.434129 -1.035392
2009-11-06 08:13:44 51°19.772 2°52.966 17.3329 0.073802 0.434146 -1.035392
2009-11-06 08:13:49 51°19.787 2°52.97 17.337 0.073802 0.434146 -1.035392
2009-11-06 08:13:54 51°19.801 2°52.973 17.3381 0.073802 0.434146 -1.000568
2009-11-06 08:13:59 51°19.815 2°52.978 17.3447 0.073802 0.434146 -1.035392
2009-11-06 08:14:04 51°19.829 2°52.981 17.3289 0.073802 0.434155 -1.035392
2009-11-06 08:14:09 51°19.844 2°52.985 17.3514 0.073802 0.434155 -1.035392
2009-11-06 08:14:14 51°19.858 2°52.989 17.3462 0.073802 0.434163 -1.035392
2009-11-06 08:14:18 51°19.87 2°52.992 17.3519 0.073802 0.434163 -1.035392
2009-11-06 08:14:24 51°19.887 2°52.997 17.337 0.073802 0.434163 -1.035392
2009-11-06 08:14:29 51°19.901 2°53 17.3614 0.073802 0.434163 -1.035392
2009-11-06 08:14:34 51°19.915 2°53.004 17.3467 0.073802 0.434172 -1.035392
2009-11-06 08:14:38 51°19.927 2°53.006 17.3669 0.073802 0.434172 -1.035392
2009-11-06 08:14:44 51°19.944 2°53.011 17.3579 0.073802 0.434172 -1.035392
2009-11-06 08:14:49 51°19.958 2°53.015 17.3698 0.073802 0.43418 -1.035392
2009-11-06 08:14:54 51°19.973 2°53.019 17.3638 0.073802 0.43418 -1.035392
2009-11-06 08:14:58 51°19.984 2°53.021 17.3749 0.073802 0.43418 -1.035392
2009-11-06 08:15:04 51°20.001 2°53.025 17.3644 0.073802 0.434189 -1.000568
2009-11-06 08:15:09 51°20.016 2°53.028 17.3808 0.073802 0.434189 -1.035392
2009-11-06 08:15:14 51°20.03 2°53.032 17.3664 0.073802 0.434189 -1.035392
2009-11-06 08:15:18 51°20.042 2°53.034 17.3915 0.073802 0.434197 -1.000568
2009-11-06 08:15:24 51°20.059 2°53.039 17.3863 0.073802 0.434197 -1.000568
2009-11-06 08:15:29 51°20.073 2°53.042 17.3919 0.073802 0.434197 -1.035392
2009-11-06 08:15:34 51°20.087 2°53.046 17.3823 0.073802 0.434205 -1.035392
2009-11-06 08:15:38 51°20.099 2°53.048 17.3969 0.073802 0.434197 -1.000568
2009-11-06 08:15:44 51°20.116 2°53.052 17.3983 0.073802 0.434197 -1.035392
2009-11-06 08:15:49 51°20.13 2°53.055 17.3967 0.073802 0.434197 -1.035392
2009-11-06 08:15:54 51°20.145 2°53.059 17.4026 0.073802 0.434205 -1.035392
2009-11-06 08:15:59 51°20.159 2°53.062 17.3943 0.073802 0.434214 -1.035392
2009-11-06 08:16:04 51°20.173 2°53.066 17.4194 0.073802 0.434205 -1.000568
2009-11-06 08:16:09 51°20.188 2°53.07 17.403 0.073802 0.434222 -1.035392
2009-11-06 08:16:14 51°20.202 2°53.073 17.4258 0.073802 0.434222 -1.035392
2009-11-06 08:16:19 51°20.216 2°53.077 17.4116 0.073802 0.434214 -1.035392
2009-11-06 08:16:24 51°20.23 2°53.08 17.4221 0.073802 0.434214 -1.035392
2009-11-06 08:16:29 51°20.245 2°53.083 17.4203 0.073802 0.434222 -1.035392
2009-11-06 08:16:34 51°20.259 2°53.087 17.4272 0.073802 0.434222 -1.035392
2009-11-06 08:16:39 51°20.273 2°53.091 17.4342 0.073802 0.434222 -1.035392
2009-11-06 08:16:44 51°20.287 2°53.094 17.4062 0.073802 0.434222 -1.035392
2009-11-06 08:16:49 51°20.302 2°53.097 17.4445 0.073802 0.434231 -1.035392
2009-11-06 08:16:54 51°20.316 2°53.101 17.4427 0.073802 0.434231 -1.035392
2009-11-06 08:16:58 51°20.327 2°53.105 17.4374 0.073802 0.434239 -1.035392
2009-11-06 08:17:04 51°20.344 2°53.109 17.4411 0.073802 0.434239 -1.035392
2009-11-06 08:17:09 51°20.358 2°53.112 17.4479 0.073802 0.434239 -1.035392
2009-11-06 08:17:14 51°20.373 2°53.115 17.4378 0.073802 0.434248 -1.000568
2009-11-06 08:17:18 51°20.384 2°53.118 17.4871 0.073802 0.434239 -1.035392
2009-11-06 08:17:24 51°20.401 2°53.121 17.4027 0.073802 0.434239 -1.035392
2009-11-06 08:17:29 51°20.415 2°53.125 17.3806 0.073802 0.434248 -0.687152
2009-11-06 08:17:34 51°20.43 2°53.129 17.4101 0.073802 0.434248 -0.408559
2009-11-06 08:17:39 51°20.444 2°53.133 17.4131 0.073802 0.434256 -0.373735
2009-11-06 08:17:44 51°20.458 2°53.136 17.4052 0.073802 0.434256 -0.373735
2009-11-06 08:17:49 51°20.472 2°53.14 17.4189 0.073802 0.434256 -0.373735
2009-11-06 08:17:54 51°20.486 2°53.143 17.4166 0.073802 0.434256 -0.373735
2009-11-06 08:17:58 51°20.498 2°53.146 17.4176 0.073802 0.434256 -0.373735
2009-11-06 08:18:04 51°20.515 2°53.151 17.4252 0.073802 0.434265 -0.338911
2009-11-06 08:18:09 51°20.529 2°53.154 17.4248 0.073802 0.434265 -0.338911
2009-11-06 08:18:14 51°20.543 2°53.157 17.4208 0.073802 0.434265 -0.304087
2009-11-06 08:18:19 51°20.557 2°53.161 17.4263 0.073802 0.434273 -0.304087
2009-11-06 08:18:24 51°20.572 2°53.164 17.4227 0.073802 0.434273 -0.304087
2009-11-06 08:18:29 51°20.586 2°53.168 17.4252 0.073802 0.434273 -0.269263
2009-11-06 08:18:34 51°20.6 2°53.171 17.4279 0.073802 0.434282 -0.269263
2009-11-06 08:18:38 51°20.611 2°53.174 17.4276 0.073802 0.434282 -0.269263
2009-11-06 08:18:44 51°20.628 2°53.178 17.4311 0.073802 0.434282 -0.234439
2009-11-06 08:18:49 51°20.643 2°53.181 17.4301 0.073802 0.434282 -0.234439
2009-11-06 08:18:54 51°20.657 2°53.185 17.4313 0.073802 0.434282 -0.234439
2009-11-06 08:18:58 51°20.668 2°53.188 17.4301 0.073802 0.43429 -0.234439
2009-11-06 08:19:04 51°20.685 2°53.192 17.4348 0.073802 0.434282 -0.234439
2009-11-06 08:19:09 51°20.699 2°53.196 17.4357 0.073802 0.434299 -0.234439
2009-11-06 08:19:14 51°20.713 2°53.2 17.4405 0.073802 0.43429 -0.199615
2009-11-06 08:19:18 51°20.724 2°53.204 17.4372 0.073802 0.43429 -0.199615
2009-11-06 08:19:24 51°20.741 2°53.208 17.4429 0.073802 0.434299 -0.199615
2009-11-06 08:19:29 51°20.755 2°53.212 17.4441 0.073802 0.434307 -0.199615
2009-11-06 08:19:34 51°20.769 2°53.215 17.443 0.073802 0.434299 -0.199615
2009-11-06 08:19:38 51°20.78 2°53.219 17.4463 0.073802 0.434315 -0.199615
2009-11-06 08:19:44 51°20.797 2°53.223 17.4522 0.073802 0.434307 -0.164791
2009-11-06 08:19:49 51°20.811 2°53.228 17.458 0.073802 0.434307 -0.164791
2009-11-06 08:19:54 51°20.825 2°53.231 17.4431 0.073802 0.434315 -0.164791
2009-11-06 08:19:58 51°20.837 2°53.234 17.4565 0.073802 0.434315 -0.164791
2009-11-06 08:20:04 51°20.854 2°53.238 17.4531 0.073802 0.434324 -0.164791
2009-11-06 08:20:09 51°20.868 2°53.242 17.4573 0.073802 0.434324 -0.164791
2009-11-06 08:20:14 51°20.882 2°53.246 17.4628 0.073802 0.434324 -0.164791
2009-11-06 08:20:19 51°20.896 2°53.249 17.4523 0.073802 0.434324 -0.129967
2009-11-06 08:20:24 51°20.91 2°53.252 17.461 0.073802 0.434324 -0.129967
2009-11-06 08:20:29 51°20.925 2°53.256 17.4588 0.073802 0.434324 -0.129967
2009-11-06 08:20:34 51°20.939 2°53.259 17.467 0.073802 0.434324 -0.164791
2009-11-06 08:20:38 51°20.951 2°53.261 17.4532 0.073802 0.434332 -0.129967
2009-11-06 08:20:44 51°20.968 2°53.264 17.4717 0.073802 0.434332 -0.129967
2009-11-06 08:20:49 51°20.982 2°53.267 17.4638 0.073802 0.434332 -0.129967
2009-11-06 08:20:54 51°20.997 2°53.27 17.4548 0.073802 0.434332 -0.129967
2009-11-06 08:20:58 51°21.008 2°53.272 17.4735 0.073802 0.434332 -0.129967
2009-11-06 08:21:04 51°21.025 2°53.277 17.4529 0.073802 0.434341 -0.129967
2009-11-06 08:21:09 51°21.039 2°53.281 17.4816 0.073802 0.434341 -0.129967
2009-11-06 08:21:14 51°21.054 2°53.285 17.4755 0.073802 0.434341 -0.129967
2009-11-06 08:21:18 51°21.065 2°53.287 17.4754 0.073802 0.434341 -0.129967
2009-11-06 08:21:24 51°21.082 2°53.292 17.4755 0.073802 0.434349 -0.129967
2009-11-06 08:21:29 51°21.096 2°53.295 17.4667 0.073802 0.434358 -0.095143
2009-11-06 08:21:34 51°21.11 2°53.299 17.4768 0.073802 0.434349 -0.095143
2009-11-06 08:21:38 51°21.121 2°53.302 17.467 0.073699 0.43373 -0.095143
2009-11-06 08:21:44 51°21.138 2°53.306 17.477 0.073802 0.434358 -0.095143
2009-11-06 08:21:49 51°21.152 2°53.309 17.487 0.073802 0.434358 -0.095143
2009-11-06 08:21:54 51°21.167 2°53.313 17.4807 0.073802 0.434358 -0.095143
2009-11-06 08:21:58 51°21.178 2°53.315 17.4852 0.073802 0.434358 -0.095143
2009-11-06 08:22:04 51°21.195 2°53.319 17.488 0.073802 0.434366 -0.095143
2009-11-06 08:22:09 51°21.209 2°53.323 17.4728 0.073802 0.434366 -0.095143
2009-11-06 08:22:14 51°21.223 2°53.326 17.4904 0.073699 0.433747 -0.095143
2009-11-06 08:22:19 51°21.237 2°53.329 17.4846 0.073802 0.434375 -0.095143
2009-11-06 08:22:24 51°21.251 2°53.332 17.4858 0.073802 0.434375 -0.095143
2009-11-06 08:22:29 51°21.266 2°53.336 17.4932 0.073802 0.434366 -0.060319
2009-11-06 08:22:34 51°21.28 2°53.339 17.489 0.073802 0.434375 -0.060319
2009-11-06 08:22:39 51°21.294 2°53.342 17.4861 0.073802 0.434375 -0.095143
2009-11-06 08:22:44 51°21.308 2°53.346 17.4927 0.073802 0.434375 -0.060319
2009-11-06 08:22:49 51°21.323 2°53.349 17.493 0.073802 0.434375 -0.060319
2009-11-06 08:22:54 51°21.337 2°53.354 17.4742 0.073802 0.434383 -0.060319
2009-11-06 08:22:59 51°21.351 2°53.356 17.4854 0.073699 0.433755 -0.060319
2009-11-06 08:23:04 51°21.365 2°53.36 17.4945 0.073699 0.433764 -0.060319
2009-11-06 08:23:09 51°21.379 2°53.364 17.4839 0.073699 0.433764 -0.060319
2009-11-06 08:23:14 51°21.393 2°53.367 17.4887 0.073802 0.4344 -0.060319
2009-11-06 08:23:18 51°21.405 2°53.37 17.4897 0.073802 0.4344 -0.060319
2009-11-06 08:23:24 51°21.422 2°53.374 17.4988 0.073802 0.434392 -0.060319
2009-11-06 08:23:29 51°21.436 2°53.378 17.5029 0.073699 0.433772 -0.060319
2009-11-06 08:23:34 51°21.45 2°53.382 17.4948 0.073699 0.433772 -0.060319
2009-11-06 08:23:39 51°21.464 2°53.385 17.492 0.073699 0.433772 -0.060319
2009-11-06 08:23:44 51°21.478 2°53.39 17.4978 0.073699 0.433772 -0.060319
2009-11-06 08:23:49 51°21.492 2°53.393 17.5115 0.073699 0.433781 -0.060319
2009-11-06 08:23:54 51°21.506 2°53.397 17.4944 0.073699 0.433781 -0.060319
2009-11-06 08:23:58 51°21.517 2°53.4 17.5099 0.073802 0.4344 -0.060319
2009-11-06 08:24:04 51°21.534 2°53.406 17.4957 0.073699 0.433789 -0.025495
2009-11-06 08:24:09 51°21.548 2°53.408 17.5064 0.073699 0.433781 -0.060319
2009-11-06 08:24:14 51°21.562 2°53.413 17.5045 0.073699 0.433789 -0.060319
2009-11-06 08:24:18 51°21.573 2°53.416 17.5064 0.073699 0.433798 -0.025495
2009-11-06 08:24:24 51°21.591 2°53.42 17.5047 0.073699 0.433798 -0.025495
2009-11-06 08:24:29 51°21.605 2°53.424 17.5123 0.073699 0.433789 -0.025495
2009-11-06 08:24:34 51°21.619 2°53.428 17.5071 0.073699 0.433798 -0.025495
2009-11-06 08:24:38 51°21.63 2°53.43 17.5063 0.073699 0.433798 -0.025495
2009-11-06 08:24:44 51°21.647 2°53.435 17.5139 0.073699 0.433798 -0.025495
2009-11-06 08:24:49 51°21.661 2°53.438 17.5181 0.073699 0.433798 -0.025495
2009-11-06 08:24:54 51°21.676 2°53.441 17.5097 0.073699 0.433806 -0.025495
2009-11-06 08:24:59 51°21.69 2°53.445 17.506 0.073699 0.433798 -0.025495
2009-11-06 08:25:04 51°21.704 2°53.448 17.5065 0.073699 0.433806 -0.025495
2009-11-06 08:25:09 51°21.718 2°53.451 17.5215 0.073699 0.433806 -0.025495
2009-11-06 08:25:14 51°21.732 2°53.455 17.5072 0.073699 0.433806 -0.025495
2009-11-06 08:25:19 51°21.747 2°53.458 17.5208 0.073699 0.433815 -0.025495
2009-11-06 08:25:24 51°21.761 2°53.462 17.5083 0.073699 0.433815 -0.025495
2009-11-06 08:25:29 51°21.775 2°53.465 17.5233 0.073699 0.433815 -0.025495
2009-11-06 08:25:34 51°21.789 2°53.469 17.5255 0.073699 0.433815 -0.025495
2009-11-06 08:25:38 51°21.801 2°53.472 17.5233 0.073699 0.433823 -0.025495
2009-11-06 08:25:44 51°21.818 2°53.476 17.5082 0.073699 0.433823 -0.025495
2009-11-06 08:25:49 51°21.832 2°53.478 17.5267 0.073699 0.433823 -0.025495
2009-11-06 08:25:54 51°21.846 2°53.483 17.5268 0.073699 0.433823 -0.025495
2009-11-06 08:25:58 51°21.858 2°53.485 17.5249 0.073699 0.433831 -0.025495
2009-11-06 08:26:04 51°21.875 2°53.49 17.5268 0.073699 0.433831 -0.025495
2009-11-06 08:26:09 51°21.889 2°53.492 17.5294 0.073699 0.433823 -0.025495
2009-11-06 08:26:14 51°21.903 2°53.496 17.5116 0.073699 0.43384 -0.025495
2009-11-06 08:26:18 51°21.915 2°53.498 17.5238 0.073699 0.43384 -0.025495
2009-11-06 08:26:24 51°21.932 2°53.502 17.5178 0.073699 0.43384 0.009329
2009-11-06 08:26:29 51°21.946 2°53.505 17.5386 0.073699 0.43384 -0.025495
2009-11-06 08:26:34 51°21.96 2°53.508 17.5341 0.073699 0.433848 0.009329
2009-11-06 08:26:38 51°21.972 2°53.511 17.5263 0.073699 0.433848 -0.025495
2009-11-06 08:26:44 51°21.989 2°53.515 17.5208 0.073699 0.43384 0.009329
2009-11-06 08:26:49 51°22.003 2°53.519 17.5229 0.073699 0.43384 0.009329
2009-11-06 08:26:54 51°22.017 2°53.522 17.5249 0.073699 0.433857 0.009329
2009-11-06 08:26:58 51°22.029 2°53.525 17.5259 0.073699 0.433857 0.009329
2009-11-06 08:27:04 51°22.046 2°53.528 17.5408 0.073699 0.433848 0.009329
2009-11-06 08:27:09 51°22.06 2°53.532 17.5363 0.073699 0.433857 0.009329
2009-11-06 08:27:14 51°22.074 2°53.535 17.5358 0.073699 0.433848 0.009329
2009-11-06 08:27:19 51°22.088 2°53.538 17.541 0.073699 0.433865 0.009329
2009-11-06 08:27:24 51°22.102 2°53.542 17.5416 0.073699 0.433865 0.009329
2009-11-06 08:27:29 51°22.116 2°53.545 17.5486 0.073699 0.433857 -0.025495
2009-11-06 08:27:34 51°22.131 2°53.549 17.5327 0.073699 0.433865 0.009329
2009-11-06 08:27:38 51°22.142 2°53.551 17.5454 0.073699 0.433865 0.009329
2009-11-06 08:27:44 51°22.159 2°53.556 17.5427 0.073699 0.433865 0.009329
2009-11-06 08:27:49 51°22.173 2°53.559 17.5471 0.073699 0.433865 0.009329
2009-11-06 08:27:54 51°22.188 2°53.563 17.5453 0.073699 0.433865 0.009329
2009-11-06 08:27:58 51°22.199 2°53.566 17.5321 0.073699 0.433874 0.009329
2009-11-06 08:28:04 51°22.216 2°53.57 17.5543 0.073699 0.433874 0.009329
2009-11-06 08:28:09 51°22.23 2°53.574 17.5328 0.073699 0.433874 0.009329
2009-11-06 08:28:14 51°22.245 2°53.576 17.5512 0.073699 0.433874 0.009329
2009-11-06 08:28:18 51°22.256 2°53.58 17.5401 0.073699 0.433874 0.009329
2009-11-06 08:28:24 51°22.273 2°53.583 17.5577 0.073699 0.433882 0.009329
2009-11-06 08:28:29 51°22.287 2°53.587 17.5465 0.073699 0.433882 0.009329
2009-11-06 08:28:34 51°22.301 2°53.589 17.552 0.073699 0.433891 0.009329
2009-11-06 08:28:39 51°22.315 2°53.593 17.5582 0.073699 0.433891 0.009329
2009-11-06 08:28:44 51°22.33 2°53.596 17.5483 0.073699 0.433891 0.009329
2009-11-06 08:28:49 51°22.344 2°53.599 17.5457 0.073699 0.433891 0.009329
2009-11-06 08:28:54 51°22.358 2°53.603 17.565 0.073699 0.433882 0.009329
2009-11-06 08:28:58 51°22.369 2°53.605 17.5453 0.073699 0.433899 0.009329
2009-11-06 08:29:04 51°22.386 2°53.609 17.5484 0.073699 0.433891 0.009329
2009-11-06 08:29:09 51°22.4 2°53.612 17.5601 0.073699 0.433891 0.009329
2009-11-06 08:29:14 51°22.415 2°53.615 17.5695 0.073699 0.433891 0.009329
2009-11-06 08:29:19 51°22.429 2°53.618 17.5589 0.073699 0.433899 0.009329
2009-11-06 08:29:24 51°22.443 2°53.622 17.5553 0.073699 0.433899 0.009329
2009-11-06 08:29:29 51°22.457 2°53.625 17.559 0.073699 0.433899 0.009329
2009-11-06 08:29:34 51°22.472 2°53.628 17.5675 0.073699 0.433899 0.009329
2009-11-06 08:29:38 51°22.483 2°53.631 17.5569 0.073699 0.433908 0.009329
2009-11-06 08:29:44 51°22.5 2°53.635 17.5699 0.073699 0.433908 0.009329
2009-11-06 08:29:49 51°22.515 2°53.639 17.5662 0.073699 0.433908 0.009329
2009-11-06 08:29:54 51°22.529 2°53.642 17.5822 0.073699 0.433908 0.009329
2009-11-06 08:29:58 51°22.541 2°53.646 17.5451 0.073699 0.433925 0.044153
2009-11-06 08:30:04 51°22.558 2°53.648 17.5679 0.073699 0.433916 0.044153
2009-11-06 08:30:09 51°22.572 2°53.653 17.569 0.073699 0.433925 0.009329
2009-11-06 08:30:14 51°22.587 2°53.656 17.5737 0.073699 0.433925 0.009329
2009-11-06 08:30:18 51°22.598 2°53.659 17.5698 0.073699 0.433925 0.009329
2009-11-06 08:30:24 51°22.616 2°53.663 17.5711 0.073699 0.433916 0.044153
2009-11-06 08:30:29 51°22.63 2°53.667 17.5735 0.073699 0.433925 0.009329
2009-11-06 08:30:34 51°22.644 2°53.671 17.5757 0.073699 0.433925 0.044153
2009-11-06 08:30:38 51°22.656 2°53.674 17.5754 0.073699 0.433933 0.044153
2009-11-06 08:30:44 51°22.674 2°53.678 17.5729 0.073699 0.433933 0.009329
2009-11-06 08:30:49 51°22.688 2°53.682 17.5802 0.073699 0.433933 0.009329
2009-11-06 08:30:54 51°22.702 2°53.686 17.5773 0.073699 0.433933 0.044153
2009-11-06 08:30:58 51°22.714 2°53.689 17.5824 0.073699 0.433933 0.009329
2009-11-06 08:31:04 51°22.731 2°53.693 17.5667 0.073699 0.433933 0.009329
2009-11-06 08:31:09 51°22.746 2°53.697 17.5789 0.073699 0.433941 0.044153
2009-11-06 08:31:14 51°22.76 2°53.7 17.5842 0.073699 0.433933 0.044153
2009-11-06 08:31:19 51°22.775 2°53.704 17.5909 0.073699 0.433941 0.044153
2009-11-06 08:31:24 51°22.789 2°53.708 17.5868 0.073699 0.433941 0.044153
2009-11-06 08:31:29 51°22.804 2°53.711 17.5688 0.073699 0.433941 0.044153
2009-11-06 08:31:34 51°22.818 2°53.715 17.594 0.073699 0.43395 0.009329
2009-11-06 08:31:38 51°22.83 2°53.718 17.5758 0.073699 0.433941 0.009329
2009-11-06 08:31:44 51°22.847 2°53.722 17.594 0.073699 0.433958 0.044153
2009-11-06 08:31:49 51°22.861 2°53.726 17.5744 0.073699 0.433958 0.044153
2009-11-06 08:31:54 51°22.876 2°53.73 17.5922 0.073699 0.43395 0.044153
2009-11-06 08:31:58 51°22.887 2°53.734 17.5794 0.073699 0.433967 0.044153
2009-11-06 08:32:04 51°22.904 2°53.738 17.5945 0.073699 0.433967 0.044153
2009-11-06 08:32:09 51°22.919 2°53.741 17.5955 0.073699 0.433958 0.044153
2009-11-06 08:32:14 51°22.933 2°53.745 17.6006 0.073699 0.433967 0.044153
2009-11-06 08:32:18 51°22.944 2°53.748 17.5882 0.073699 0.433967 0.044153
2009-11-06 08:32:24 51°22.962 2°53.753 17.6018 0.073699 0.433967 0.044153
2009-11-06 08:32:29 51°22.976 2°53.756 17.5985 0.073699 0.433967 0.044153
2009-11-06 08:32:34 51°22.99 2°53.76 17.5862 0.073699 0.433975 0.044153
2009-11-06 08:32:39 51°23.004 2°53.763 17.6005 0.073699 0.433975 0.044153
2009-11-06 08:32:44 51°23.019 2°53.767 17.5971 0.073699 0.433975 0.044153
2009-11-06 08:32:49 51°23.033 2°53.77 17.5944 0.073699 0.433975 0.044153
2009-11-06 08:32:54 51°23.047 2°53.775 17.5915 0.073699 0.433975 0.044153
2009-11-06 08:32:58 51°23.058 2°53.778 17.6006 0.073699 0.433975 0.044153
2009-11-06 08:33:04 51°23.075 2°53.783 17.595 0.073699 0.433984 0.044153
2009-11-06 08:33:09 51°23.09 2°53.786 17.6135 0.073699 0.433984 0.044153
2009-11-06 08:33:14 51°23.104 2°53.791 17.6003 0.073699 0.433992 0.044153
2009-11-06 08:33:18 51°23.115 2°53.792 17.6131 0.073699 0.433992 0.044153
2009-11-06 08:33:24 51°23.132 2°53.799 17.5974 0.073699 0.433984 0.044153
2009-11-06 08:33:29 51°23.146 2°53.801 17.6108 0.073699 0.434001 0.044153
2009-11-06 08:33:34 51°23.16 2°53.806 17.6004 0.073699 0.434009 0.044153
2009-11-06 08:33:39 51°23.174 2°53.809 17.6158 0.073699 0.434009 0.044153
2009-11-06 08:33:44 51°23.189 2°53.813 17.614 0.073699 0.434009 0.044153
2009-11-06 08:33:49 51°23.203 2°53.817 17.6075 0.073699 0.434009 0.044153
2009-11-06 08:33:54 51°23.217 2°53.821 17.622 0.073699 0.434001 0.044153
2009-11-06 08:33:59 51°23.231 2°53.825 17.6071 0.073699 0.434009 0.044153
2009-11-06 08:34:04 51°23.245 2°53.828 17.6176 0.073699 0.434009 0.044153
2009-11-06 08:34:09 51°23.259 2°53.832 17.6198 0.073699 0.434009 0.044153
2009-11-06 08:34:14 51°23.274 2°53.835 17.622 0.073699 0.434009 0.044153
2009-11-06 08:34:18 51°23.285 2°53.839 17.5997 0.073699 0.434009 0.044153
2009-11-06 08:34:24 51°23.302 2°53.842 17.6265 0.073699 0.434009 0.044153
2009-11-06 08:34:29 51°23.316 2°53.847 17.6054 0.073699 0.434009 0.044153
2009-11-06 08:34:34 51°23.33 2°53.85 17.623 0.073699 0.434009 0.044153
2009-11-06 08:34:38 51°23.341 2°53.852 17.6223 0.073699 0.434018 0.044153
2009-11-06 08:34:44 51°23.358 2°53.856 17.6241 0.073699 0.434018 0.044153
2009-11-06 08:34:49 51°23.372 2°53.86 17.6343 0.073699 0.434026 0.044153
2009-11-06 08:34:54 51°23.387 2°53.864 17.6132 0.073699 0.434026 0.044153
2009-11-06 08:34:58 51°23.398 2°53.866 17.6378 0.073699 0.434018 0.044153
2009-11-06 08:35:04 51°23.414 2°53.871 17.6304 0.073699 0.434035 0.044153
2009-11-06 08:35:09 51°23.429 2°53.874 17.6384 0.073699 0.434026 0.044153
2009-11-06 08:35:14 51°23.442 2°53.879 17.6172 0.073699 0.434043 0.044153
2009-11-06 08:35:18 51°23.454 2°53.88 17.6343 0.073699 0.434043 0.044153
2009-11-06 08:35:24 51°23.47 2°53.886 17.6314 0.073699 0.434018 0.044153
2009-11-06 08:35:29 51°23.484 2°53.889 17.6292 0.073699 0.434043 0.044153
2009-11-06 08:35:34 51°23.499 2°53.892 17.642 0.073699 0.434035 0.078977
2009-11-06 08:35:38 51°23.51 2°53.895 17.6315 0.073699 0.434043 0.044153
2009-11-06 08:35:44 51°23.527 2°53.899 17.6455 0.073699 0.434043 0.044153
2009-11-06 08:35:49 51°23.541 2°53.903 17.6208 0.073699 0.434043 0.044153
2009-11-06 08:35:54 51°23.555 2°53.906 17.6357 0.073699 0.434043 0.044153
2009-11-06 08:35:58 51°23.566 2°53.909 17.6374 0.073699 0.434043 0.044153
2009-11-06 08:36:04 51°23.583 2°53.914 17.6281 0.073699 0.434052 0.044153
2009-11-06 08:36:09 51°23.597 2°53.918 17.6415 0.073699 0.434043 0.044153
2009-11-06 08:36:14 51°23.611 2°53.922 17.6437 0.073699 0.434052 0.044153
2009-11-06 08:36:19 51°23.625 2°53.925 17.6368 0.073699 0.434043 0.044153
2009-11-06 08:36:24 51°23.639 2°53.929 17.6495 0.073699 0.434043 0.044153
2009-11-06 08:36:29 51°23.653 2°53.933 17.6397 0.073699 0.434052 0.044153
2009-11-06 08:36:34 51°23.667 2°53.936 17.6349 0.073699 0.434052 0.044153
2009-11-06 08:36:38 51°23.678 2°53.94 17.6524 0.073699 0.434052 0.044153
2009-11-06 08:36:44 51°23.695 2°53.944 17.6485 0.073699 0.434052 0.044153
2009-11-06 08:36:49 51°23.709 2°53.948 17.6469 0.073699 0.434052 0.044153
2009-11-06 08:36:54 51°23.723 2°53.951 17.6465 0.073699 0.434052 0.044153
2009-11-06 08:36:58 51°23.735 2°53.955 17.6315 0.073699 0.43406 0.044153
2009-11-06 08:37:04 51°23.751 2°53.959 17.6546 0.073699 0.43406 0.044153
2009-11-06 08:37:09 51°23.766 2°53.962 17.6506 0.073699 0.43406 0.044153
2009-11-06 08:37:14 51°23.779 2°53.966 17.6505 0.073699 0.434068 0.044153
2009-11-06 08:37:19 51°23.793 2°53.969 17.6474 0.073699 0.434068 0.044153
2009-11-06 08:37:24 51°23.808 2°53.973 17.6459 0.073699 0.434068 0.078977
2009-11-06 08:37:29 51°23.822 2°53.977 17.6553 0.073699 0.434068 0.044153
2009-11-06 08:37:34 51°23.835 2°53.981 17.6642 0.073699 0.434077 0.044153
2009-11-06 08:37:38 51°23.847 2°53.984 17.6583 0.073699 0.434077 0.044153
2009-11-06 08:37:44 51°23.864 2°53.987 17.6626 0.073699 0.434077 0.044153
2009-11-06 08:37:49 51°23.878 2°53.991 17.6509 0.073699 0.434077 0.044153
2009-11-06 08:37:54 51°23.892 2°53.995 17.652 0.073699 0.434077 0.044153
2009-11-06 08:37:58 51°23.903 2°53.998 17.6672 0.073699 0.434077 0.044153
2009-11-06 08:38:04 51°23.92 2°54.002 17.6664 0.073699 0.434085 0.044153
2009-11-06 08:38:09 51°23.934 2°54.006 17.6638 0.073699 0.434094 0.078977
2009-11-06 08:38:14 51°23.948 2°54.009 17.6711 0.073699 0.434094 0.044153
2009-11-06 08:38:19 51°23.962 2°54.013 17.656 0.073699 0.434085 0.044153
2009-11-06 08:38:24 51°23.976 2°54.016 17.6719 0.073699 0.434085 0.044153
2009-11-06 08:38:29 51°23.99 2°54.019 17.6564 0.073699 0.434094 0.044153
2009-11-06 08:38:34 51°24.004 2°54.023 17.6684 0.073699 0.434094 0.044153
2009-11-06 08:38:39 51°24.018 2°54.027 17.6721 0.073699 0.434102 0.044153
2009-11-06 08:38:44 51°24.032 2°54.03 17.6613 0.073699 0.434102 0.078977
2009-11-06 08:38:49 51°24.046 2°54.034 17.6819 0.073699 0.434102 0.044153
2009-11-06 08:38:54 51°24.06 2°54.038 17.6667 0.073699 0.434102 0.044153
2009-11-06 08:38:58 51°24.072 2°54.039 17.6709 0.073699 0.434102 0.078977
2009-11-06 08:39:04 51°24.089 2°54.044 17.6652 0.073699 0.434119 0.078977
2009-11-06 08:39:09 51°24.103 2°54.047 17.6735 0.073699 0.434111 0.044153
2009-11-06 08:39:14 51°24.117 2°54.051 17.6737 0.073699 0.434111 0.044153
2009-11-06 08:39:18 51°24.128 2°54.053 17.6839 0.073699 0.434111 0.044153
2009-11-06 08:39:24 51°24.145 2°54.057 17.6778 0.073699 0.434119 0.044153
2009-11-06 08:39:29 51°24.159 2°54.06 17.6708 0.073699 0.434119 0.078977
2009-11-06 08:39:34 51°24.174 2°54.062 17.6768 0.073699 0.434128 0.078977
2009-11-06 08:39:38 51°24.185 2°54.063 17.6797 0.073699 0.434119 0.044153
2009-11-06 08:39:44 51°24.202 2°54.065 17.6872 0.073699 0.434119 0.078977
2009-11-06 08:39:49 51°24.217 2°54.067 17.6857 0.073699 0.434119 0.078977
2009-11-06 08:39:54 51°24.231 2°54.068 17.6867 0.073699 0.434119 0.044153
2009-11-06 08:39:58 51°24.243 2°54.069 17.6881 0.073699 0.434128 0.078977
2009-11-06 08:40:04 51°24.26 2°54.07 17.7007 0.073699 0.434119 0.078977
2009-11-06 08:40:09 51°24.275 2°54.072 17.6734 0.073699 0.434136 0.078977
2009-11-06 08:40:14 51°24.289 2°54.072 17.6811 0.073699 0.434136 0.078977
2009-11-06 08:40:19 51°24.304 2°54.074 17.6916 0.073699 0.434136 0.078977
2009-11-06 08:40:24 51°24.318 2°54.075 17.6858 0.073699 0.434136 0.078977
2009-11-06 08:40:29 51°24.333 2°54.075 17.6706 0.073699 0.434136 0.044153
2009-11-06 08:40:34 51°24.347 2°54.076 17.6977 0.073699 0.434145 0.078977
2009-11-06 08:40:38 51°24.359 2°54.077 17.6776 0.073699 0.434145 0.078977
2009-11-06 08:40:44 51°24.376 2°54.076 17.699 0.073699 0.434145 0.078977
2009-11-06 08:40:49 51°24.39 2°54.077 17.6911 0.073699 0.434145 0.078977
2009-11-06 08:40:54 51°24.405 2°54.077 17.6966 0.073699 0.434136 0.078977
2009-11-06 08:40:58 51°24.416 2°54.079 17.6819 0.073699 0.434153 0.078977
2009-11-06 08:41:04 51°24.434 2°54.078 17.6984 0.073699 0.434145 0.078977
2009-11-06 08:41:09 51°24.448 2°54.08 17.7008 0.073699 0.434162 0.078977
2009-11-06 08:41:14 51°24.462 2°54.081 17.6817 0.073699 0.434162 0.078977
2009-11-06 08:41:18 51°24.473 2°54.081 17.6933 0.073699 0.434162 0.078977
2009-11-06 08:41:24 51°24.491 2°54.083 17.6949 0.073699 0.434162 0.078977
2009-11-06 08:41:29 51°24.505 2°54.084 17.7023 0.073699 0.434162 0.078977
2009-11-06 08:41:34 51°24.519 2°54.084 17.7065 0.073699 0.434153 0.078977
2009-11-06 08:41:38 51°24.531 2°54.086 17.7052 0.073699 0.434162 0.078977
2009-11-06 08:41:44 51°24.548 2°54.087 17.6927 0.073699 0.434162 0.078977
2009-11-06 08:41:49 51°24.562 2°54.087 17.7004 0.073699 0.43417 0.078977
2009-11-06 08:41:54 51°24.576 2°54.088 17.6995 0.073699 0.43417 0.078977
2009-11-06 08:41:58 51°24.588 2°54.09 17.7014 0.073699 0.434162 0.078977
2009-11-06 08:42:04 51°24.605 2°54.091 17.6966 0.073699 0.434179 0.078977
2009-11-06 08:42:09 51°24.62 2°54.093 17.7093 0.073699 0.434179 0.078977
2009-11-06 08:42:14 51°24.634 2°54.094 17.7091 0.073699 0.434179 0.078977
2009-11-06 08:42:18 51°24.645 2°54.095 17.7124 0.073699 0.434196 0.078977
2009-11-06 08:42:24 51°24.662 2°54.096 17.7016 0.073699 0.434196 0.078977
2009-11-06 08:42:29 51°24.677 2°54.097 17.7171 0.073699 0.434179 0.078977
2009-11-06 08:42:34 51°24.691 2°54.099 17.7024 0.073699 0.434196 0.078977
2009-11-06 08:42:39 51°24.705 2°54.099 17.708 0.073699 0.434187 0.078977
2009-11-06 08:42:44 51°24.719 2°54.101 17.7078 0.073699 0.434196 0.078977
2009-11-06 08:42:49 51°24.734 2°54.102 17.6988 0.073699 0.434196 0.078977
2009-11-06 08:42:54 51°24.748 2°54.103 17.7142 0.073699 0.434196 0.078977
2009-11-06 08:42:59 51°24.762 2°54.104 17.7184 0.073699 0.434196 0.078977
2009-11-06 08:43:04 51°24.777 2°54.105 17.7131 0.073699 0.434196 0.078977
2009-11-06 08:43:09 51°24.791 2°54.107 17.7158 0.073699 0.434196 0.078977
2009-11-06 08:43:14 51°24.805 2°54.107 17.7174 0.073699 0.434196 0.078977
2009-11-06 08:43:18 51°24.817 2°54.108 17.7292 0.073699 0.434196 0.078977
2009-11-06 08:43:24 51°24.834 2°54.11 17.7127 0.073699 0.434204 0.078977
2009-11-06 08:43:29 51°24.848 2°54.111 17.7287 0.073699 0.434204 0.078977
2009-11-06 08:43:34 51°24.863 2°54.112 17.7203 0.073699 0.434213 0.078977
2009-11-06 08:43:38 51°24.874 2°54.112 17.7274 0.073699 0.434213 0.078977
2009-11-06 08:43:44 51°24.892 2°54.113 17.7106 0.073699 0.434213 0.078977
2009-11-06 08:43:49 51°24.906 2°54.114 17.7404 0.073699 0.434221 0.078977
2009-11-06 08:43:54 51°24.921 2°54.115 17.7153 0.073699 0.434221 0.078977
2009-11-06 08:43:58 51°24.932 2°54.116 17.7283 0.073699 0.434213 0.078977
2009-11-06 08:44:04 51°24.95 2°54.116 17.7357 0.073699 0.434213 0.078977
2009-11-06 08:44:09 51°24.964 2°54.118 17.7342 0.073699 0.434221 0.078977
2009-11-06 08:44:14 51°24.979 2°54.119 17.7207 0.073699 0.434221 0.078977
2009-11-06 08:44:18 51°24.99 2°54.12 17.7318 0.073699 0.434221 0.078977
2009-11-06 08:44:24 51°25.007 2°54.121 17.7344 0.073699 0.434221 0.078977
2009-11-06 08:44:29 51°25.022 2°54.122 17.7326 0.073699 0.434229 0.078977
2009-11-06 08:44:34 51°25.036 2°54.124 17.7365 0.073699 0.434229 0.078977
2009-11-06 08:44:39 51°25.051 2°54.125 17.7332 0.073699 0.434229 0.078977
2009-11-06 08:44:44 51°25.065 2°54.126 17.7437 0.073699 0.434229 0.078977
2009-11-06 08:44:49 51°25.08 2°54.127 17.7394 0.073699 0.434229 0.078977
2009-11-06 08:44:54 51°25.094 2°54.129 17.7442 0.073699 0.434238 0.078977
2009-11-06 08:44:58 51°25.106 2°54.129 17.7425 0.073699 0.434238 0.078977
2009-11-06 08:45:04 51°25.123 2°54.131 17.7432 0.073699 0.434238 0.078977
2009-11-06 08:45:09 51°25.137 2°54.131 17.7407 0.073699 0.434229 0.078977
2009-11-06 08:45:14 51°25.152 2°54.133 17.7482 0.073699 0.434246 0.078977
2009-11-06 08:45:18 51°25.163 2°54.134 17.7292 0.073699 0.434246 0.078977
2009-11-06 08:45:24 51°25.181 2°54.136 17.7482 0.073699 0.434238 0.078977
2009-11-06 08:45:29 51°25.195 2°54.138 17.7273 0.073699 0.434255 0.078977
2009-11-06 08:45:34 51°25.21 2°54.138 17.7509 0.073699 0.434246 0.078977
2009-11-06 08:45:38 51°25.221 2°54.14 17.7481 0.073699 0.434255 0.078977
2009-11-06 08:45:44 51°25.239 2°54.141 17.745 0.073699 0.434263 0.078977
2009-11-06 08:45:49 51°25.253 2°54.143 17.7555 0.073699 0.434263 0.078977
2009-11-06 08:45:54 51°25.268 2°54.144 17.7529 0.073699 0.434263 0.078977
2009-11-06 08:45:58 51°25.279 2°54.146 17.7493 0.073699 0.434263 0.078977
2009-11-06 08:46:04 51°25.296 2°54.147 17.7604 0.073699 0.434263 0.113802
2009-11-06 08:46:09 51°25.311 2°54.149 17.7487 0.073699 0.434263 0.078977
2009-11-06 08:46:14 51°25.325 2°54.15 17.7574 0.073699 0.434263 0.078977
2009-11-06 08:46:18 51°25.336 2°54.152 17.7538 0.073699 0.434263 0.078977
2009-11-06 08:46:24 51°25.354 2°54.154 17.7583 0.073699 0.434263 0.078977
2009-11-06 08:46:29 51°25.368 2°54.155 17.7626 0.073699 0.434263 0.113802
2009-11-06 08:46:34 51°25.382 2°54.157 17.75 0.073699 0.434272 0.078977
2009-11-06 08:46:38 51°25.394 2°54.158 17.763 0.073699 0.434263 0.113802
2009-11-06 08:46:44 51°25.411 2°54.159 17.7623 0.073699 0.434272 0.078977
2009-11-06 08:46:49 51°25.425 2°54.161 17.7544 0.073699 0.434272 0.078977
2009-11-06 08:46:54 51°25.44 2°54.161 17.7671 0.073699 0.43428 0.113802
2009-11-06 08:46:58 51°25.451 2°54.163 17.7577 0.073699 0.43428 0.113802
2009-11-06 08:47:04 51°25.468 2°54.164 17.7667 0.073699 0.43428 0.078977
2009-11-06 08:47:09 51°25.482 2°54.165 17.7596 0.073596 0.433652 0.113802
2009-11-06 08:47:14 51°25.497 2°54.167 17.762 0.073699 0.434289 0.078977
2009-11-06 08:47:19 51°25.511 2°54.168 17.7535 0.073699 0.43428 0.113802
2009-11-06 08:47:24 51°25.525 2°54.168 17.7821 0.073699 0.43428 0.113802
2009-11-06 08:47:29 51°25.54 2°54.171 17.7601 0.073596 0.433669 0.078977
2009-11-06 08:47:34 51°25.554 2°54.171 17.7787 0.073596 0.43366 0.078977
2009-11-06 08:47:38 51°25.565 2°54.174 17.7523 0.073596 0.433677 0.078977
2009-11-06 08:47:44 51°25.582 2°54.174 17.7845 0.073596 0.433669 0.113802
2009-11-06 08:47:49 51°25.596 2°54.177 17.7631 0.073596 0.433677 0.113802
2009-11-06 08:47:54 51°25.611 2°54.177 17.7751 0.073596 0.433677 0.113802
2009-11-06 08:47:58 51°25.622 2°54.179 17.779 0.073596 0.433677 0.113802
2009-11-06 08:48:04 51°25.639 2°54.18 17.7667 0.073596 0.433686 0.113802
2009-11-06 08:48:09 51°25.653 2°54.182 17.7796 0.073596 0.433686 0.113802
2009-11-06 08:48:14 51°25.667 2°54.182 17.7794 0.073596 0.433686 0.113802
2009-11-06 08:48:18 51°25.679 2°54.184 17.7735 0.073596 0.433686 0.113802
2009-11-06 08:48:24 51°25.696 2°54.185 17.7797 0.073596 0.433677 0.078977
2009-11-06 08:48:29 51°25.71 2°54.186 17.7719 0.073596 0.433686 0.078977
2009-11-06 08:48:34 51°25.724 2°54.187 17.7773 0.073596 0.433686 0.078977
2009-11-06 08:48:38 51°25.736 2°54.188 17.7809 0.073596 0.433677 0.113802
2009-11-06 08:48:44 51°25.753 2°54.19 17.7856 0.073596 0.433686 0.078977
2009-11-06 08:48:49 51°25.767 2°54.191 17.7819 0.073596 0.433686 0.113802
2009-11-06 08:48:54 51°25.781 2°54.192 17.7874 0.073596 0.433686 0.113802
2009-11-06 08:48:59 51°25.795 2°54.194 17.7936 0.073596 0.433677 0.113802
2009-11-06 08:49:04 51°25.81 2°54.195 17.7751 0.073596 0.433694 0.113802
2009-11-06 08:49:09 51°25.824 2°54.196 17.7836 0.073596 0.433686 0.078977
2009-11-06 08:49:14 51°25.839 2°54.197 17.7971 0.073596 0.433686 0.113802
2009-11-06 08:49:19 51°25.853 2°54.199 17.7816 0.073596 0.433694 0.113802
2009-11-06 08:49:24 51°25.867 2°54.199 17.7881 0.073596 0.433694 0.113802
2009-11-06 08:49:29 51°25.881 2°54.201 17.7769 0.073596 0.433703 0.113802
2009-11-06 08:49:34 51°25.896 2°54.202 17.8 0.073596 0.433686 0.113802
2009-11-06 08:49:38 51°25.907 2°54.204 17.8022 0.073596 0.433703 0.113802
2009-11-06 08:49:44 51°25.924 2°54.204 17.7988 0.073596 0.433694 0.078977
2009-11-06 08:49:49 51°25.938 2°54.206 17.7954 0.073596 0.433694 0.078977
2009-11-06 08:49:54 51°25.953 2°54.206 17.8087 0.073596 0.433694 0.113802
2009-11-06 08:49:58 51°25.964 2°54.209 17.7796 0.073596 0.433711 0.113802
2009-11-06 08:50:04 51°25.981 2°54.208 17.8033 0.073596 0.433694 0.113802
2009-11-06 08:50:09 51°25.995 2°54.21 17.7828 0.073596 0.43372 0.113802
2009-11-06 08:50:14 51°26.01 2°54.21 17.7899 0.073596 0.433711 0.113802
2009-11-06 08:50:18 51°26.021 2°54.211 17.8008 0.073596 0.433711 0.113802
2009-11-06 08:50:23 51°26.035 2°54.212 17.8142 0.073596 0.433703 0.078977
2009-11-06 08:50:29 51°26.052 2°54.213 17.7959 0.073596 0.43372 0.113802
2009-11-06 08:50:34 51°26.067 2°54.213 17.811 0.073596 0.433711 0.113802
2009-11-06 08:50:39 51°26.081 2°54.214 17.8001 0.073596 0.433711 0.113802
2009-11-06 08:50:44 51°26.096 2°54.214 17.8129 0.073596 0.433711 0.113802
2009-11-06 08:50:49 51°26.11 2°54.216 17.8085 0.073596 0.43372 0.113802
2009-11-06 08:50:54 51°26.124 2°54.216 17.811 0.073596 0.43372 0.113802
2009-11-06 08:50:58 51°26.136 2°54.217 17.8096 0.073596 0.43372 0.113802
2009-11-06 08:51:04 51°26.153 2°54.218 17.8177 0.073596 0.43372 0.113802
2009-11-06 08:51:09 51°26.167 2°54.22 17.8072 0.073596 0.43372 0.113802
2009-11-06 08:51:14 51°26.182 2°54.221 17.8133 0.073596 0.43372 0.113802
2009-11-06 08:51:19 51°26.196 2°54.222 17.8145 0.073596 0.43372 0.113802
2009-11-06 08:51:24 51°26.21 2°54.224 17.8089 0.073596 0.43372 0.113802
2009-11-06 08:51:29 51°26.224 2°54.225 17.8182 0.073596 0.43372 0.113802
2009-11-06 08:51:34 51°26.239 2°54.227 17.8056 0.073596 0.43372 0.113802
2009-11-06 08:51:39 51°26.253 2°54.229 17.8206 0.073596 0.43372 0.113802
2009-11-06 08:51:44 51°26.267 2°54.231 17.8178 0.073596 0.43372 0.113802
2009-11-06 08:51:49 51°26.282 2°54.231 17.832 0.073596 0.43372 0.113802
2009-11-06 08:51:54 51°26.296 2°54.234 17.8059 0.073596 0.433728 0.113802
2009-11-06 08:51:59 51°26.311 2°54.234 17.8284 0.073596 0.43372 0.113802
2009-11-06 08:52:04 51°26.325 2°54.236 17.82 0.073596 0.433728 0.113802
2009-11-06 08:52:09 51°26.339 2°54.237 17.8204 0.073596 0.433728 0.113802
2009-11-06 08:52:14 51°26.353 2°54.238 17.8255 0.073596 0.433728 0.113802
2009-11-06 08:52:19 51°26.367 2°54.24 17.8344 0.073596 0.433728 0.113802
2009-11-06 08:52:24 51°26.382 2°54.241 17.8293 0.073596 0.433728 0.113802
2009-11-06 08:52:29 51°26.396 2°54.243 17.8227 0.073596 0.433728 0.113802
2009-11-06 08:52:34 51°26.41 2°54.244 17.8211 0.073596 0.433728 0.113802
2009-11-06 08:52:38 51°26.422 2°54.246 17.84 0.073596 0.433728 0.113802
2009-11-06 08:52:44 51°26.439 2°54.248 17.8243 0.073596 0.433736 0.113802
2009-11-06 08:52:49 51°26.453 2°54.249 17.8324 0.073596 0.433736 0.113802
2009-11-06 08:52:54 51°26.467 2°54.25 17.8339 0.073596 0.433736 0.113802
2009-11-06 08:52:58 51°26.479 2°54.25 17.8423 0.073596 0.433736 0.113802
2009-11-06 08:53:03 51°26.493 2°54.252 17.8349 0.073596 0.433736 0.113802